GFSNE_sfc_thetae_000.txt.gz
Theta_e
321 319 319 320 322 322 321 318 314 310 311 315 316 319 315 307 305 304 304 301 302 301 300 299 300 300 300 300 299 299 298 298 298 299 300 300 300 300
322 321 320 320 320 321 319 318 317 314 309 316 317 319 307 299 300 300 301 299 298 298 298 297 297 297 297 297 296 296 296 296 297 298 299 299 299 299
324 322 322 322 320 320 317 315 313 312 309 313 317 318 304 299 296 298 298 300 299 294 295 295 294 294 294 294 294 294 295 295 295 296 296 297 297 297
323 323 321 321 321 321 317 315 313 313 311 309 314 307 302 295 296 296 297 297 297 293 292 292 293 292 292 292 292 293 292 292 293 294 294 295 296 296
324 322 323 322 320 320 319 316 315 313 313 312 312 301 295 296 296 298 297 297 295 290 290 291 290 291 291 291 291 291 291 291 292 292 293 293 294 294
324 324 322 321 320 320 318 316 316 313 314 311 308 297 295 294 297 298 295 296 293 290 290 289 289 289 290 290 290 289 289 290 292 292 292 292 292 293
323 323 322 319 314 319 317 316 315 315 313 307 298 295 293 292 294 296 294 294 290 289 289 289 289 288 289 289 288 288 289 290 291 291 292 292 291 292
321 322 322 312 313 313 313 313 316 314 309 305 300 297 294 295 296 294 291 287 285 289 286 286 288 287 288 288 288 288 289 290 290 290 290 291 290 290
320 319 320 319 313 317 312 312 311 311 310 307 299 298 297 294 294 291 288 286 285 287 285 284 288 286 288 287 288 288 289 289 289 289 289 289 289 289
319 319 319 319 316 315 312 310 309 305 302 301 301 295 295 296 293 290 288 287 286 285 286 282 287 285 287 288 287 287 288 288 288 288 287 288 287 288
317 318 318 318 315 310 311 302 296 293 294 296 295 294 294 292 289 286 284 284 282 283 285 283 284 284 284 285 287 286 287 287 287 287 287 286 287 287
315 316 310 315 311 308 308 300 295 292 291 289 290 290 289 288 288 288 286 283 282 281 285 282 283 282 280 285 285 286 285 285 285 286 285 286 286 285
312 312 313 307 307 306 306 302 299 293 292 290 289 287 286 286 286 286 286 285 282 282 285 284 282 281 280 280 283 284 284 284 284 284 285 285 285 285
310 312 309 304 303 303 302 302 297 294 289 287 284 283 284 284 285 285 285 285 285 284 285 283 280 279 278 277 278 283 283 283 283 283 283 285 285 285
308 309 304 301 302 301 301 298 294 288 285 283 282 282 284 285 284 283 283 283 283 284 284 284 282 281 279 277 277 278 280 281 282 282 283 282 282 283
301 301 301 301 300 296 295 293 288 287 285 283 281 283 283 282 282 283 281 282 281 282 283 283 282 280 278 279 279 278 280 278 281 281 282 282 283 283
297 297 296 292 291 291 287 287 286 287 283 282 281 280 281 281 281 281 282 281 280 280 281 282 283 281 280 279 276 279 279 280 281 281 281 280 282 283
295 294 291 290 289 287 285 285 285 284 282 281 281 281 281 280 280 280 281 280 280 280 280 281 279 278 280 282 281 278 279 279 280 281 281 279 281 283
294 292 289 289 288 286 286 285 283 282 282 281 282 282 281 281 280 279 279 279 279 280 280 279 277 276 274 274 280 281 277 278 279 278 280 280 280 282
289 290 289 289 287 286 285 283 282 281 281 281 282 281 280 281 280 279 279 279 279 279 278 279 278 276 274 274 273 277 279 277 277 277 278 280 282 284
287 287 287 287 286 285 284 282 281 281 281 281 281 280 281 281 279 279 279 278 278 278 277 278 278 276 275 273 272 277 280 282 280 278 278 277 278 280
287 287 286 285 285 284 283 282 281 281 281 280 279 280 280 280 279 278 278 278 278 278 277 278 278 277 276 275 274 275 278 281 282 283 282 281 277 275
287 286 285 285 284 284 283 282 281 281 281 279 279 280 280 279 279 279 279 278 278 277 277 276 277 278 276 275 274 275 278 279 279 279 281 284 283 284

GFSNE_sfc_thetae_003.txt.gz
Theta_e
327 325 322 322 322 321 319 317 312 308 310 314 312 316 316 314 308 304 304 307 308 308 306 304 302 301 301 301 301 300 299 299 299 299 300 300 301 302
327 325 323 322 322 321 320 319 318 314 310 316 316 317 310 304 303 301 302 304 305 304 302 300 299 298 298 298 297 298 297 297 298 298 299 299 299 299
327 325 324 323 321 321 321 319 318 316 311 315 317 316 302 297 296 298 298 298 298 300 299 299 297 296 296 295 295 295 295 296 296 297 297 298 297 298
325 325 323 322 321 321 320 318 317 317 314 311 315 315 304 299 298 296 297 298 298 297 296 295 294 295 295 294 294 294 294 294 294 294 295 295 296 296
324 324 323 323 321 320 320 318 317 316 315 312 312 312 303 298 295 297 297 296 297 296 294 293 294 293 293 294 293 293 292 292 292 292 293 294 294 295
323 323 323 323 322 321 320 318 317 315 314 311 310 299 299 298 297 295 294 296 295 294 292 292 292 292 292 292 292 292 291 290 291 292 293 293 293 293
321 322 322 319 315 319 320 319 318 315 313 310 308 298 297 295 294 297 295 295 294 291 288 289 289 288 288 290 291 290 290 290 291 292 293 292 292 292
316 319 320 313 314 313 314 314 318 315 311 310 307 301 301 299 298 295 293 289 285 289 286 285 287 285 286 286 290 290 290 290 291 292 291 291 291 291
314 316 316 318 315 319 315 312 312 312 313 312 307 304 304 300 297 293 291 288 286 286 284 282 286 284 286 287 290 290 290 289 290 291 290 290 290 290
313 314 315 315 317 317 316 315 312 313 312 310 310 308 303 299 296 294 291 287 285 284 285 281 285 283 285 285 290 290 288 289 289 289 289 289 289 289
312 313 313 315 314 311 313 311 309 301 300 302 301 300 299 298 293 289 284 283 282 282 284 283 282 282 282 283 284 288 288 288 288 288 288 288 288 288
307 309 308 310 311 310 312 310 299 293 293 292 293 294 293 291 291 288 285 284 282 281 284 281 281 280 278 282 282 283 282 287 287 287 287 288 287 283
303 303 307 308 309 309 309 309 303 294 294 289 287 285 285 285 285 286 287 286 282 282 285 283 280 279 279 278 280 280 281 281 281 282 286 287 287 286
298 300 303 304 305 306 306 309 304 296 290 287 286 284 283 283 284 284 285 285 285 284 284 282 277 276 275 275 275 279 279 281 281 280 280 284 286 287
298 299 300 301 302 304 305 302 297 291 287 286 285 283 283 284 284 283 283 283 283 284 284 282 279 278 279 276 274 276 277 278 280 279 279 279 279 280
296 297 299 299 301 301 299 296 290 290 289 287 283 283 283 282 281 282 281 281 281 281 283 281 280 279 277 276 276 276 278 276 278 278 278 279 280 281
296 297 296 294 291 290 291 287 287 288 284 283 282 281 281 281 281 282 282 280 280 280 279 281 281 280 279 277 275 276 276 277 278 278 278 278 279 280
297 296 293 290 289 290 285 285 286 286 283 282 281 281 280 280 280 281 281 280 279 279 278 278 275 274 275 278 281 276 277 276 277 278 278 276 277 280
293 292 288 287 287 286 285 285 284 283 283 282 281 281 281 280 280 279 280 279 278 278 277 274 272 270 269 270 276 284 276 276 276 275 276 277 277 278
289 287 288 288 286 285 285 284 282 282 282 281 281 281 280 280 279 279 279 278 278 277 273 273 272 272 268 268 270 274 281 276 275 275 276 277 278 283
288 287 286 286 286 285 284 282 282 281 281 281 280 280 280 280 280 280 279 280 278 274 271 272 272 278 268 268 267 272 277 282 281 277 278 277 276 276
287 287 287 285 285 284 282 282 282 281 280 280 280 280 281 281 279 278 278 276 275 274 271 272 272 270 269 269 271 272 274 277 282 284 284 283 278 273
286 287 286 285 285 284 283 282 282 281 281 280 280 280 280 279 279 279 278 277 275 272 272 271 272 272 270 271 275 274 274 277 279 277 279 283 285 285

GFSNE_sfc_thetae_006.txt.gz
Theta_e
326 326 326 325 324 322 320 318 314 308 310 314 312 315 316 316 316 314 308 312 314 314 315 314 312 308 306 305 304 303 302 301 300 300 300 301 301 302
326 325 326 326 324 322 320 319 318 314 310 315 315 314 315 315 314 308 305 307 311 312 313 310 307 306 304 302 301 300 299 297 298 298 299 300 300 300
324 324 324 325 323 322 320 319 317 317 312 315 318 318 309 310 306 302 302 302 305 309 308 306 304 303 301 300 298 297 296 295 296 296 297 298 299 298
319 321 321 323 322 322 320 319 318 318 315 313 316 316 306 303 303 300 301 301 301 305 305 304 302 300 299 298 296 295 295 294 294 294 295 295 296 297
315 316 318 320 320 320 321 320 318 317 317 315 314 316 304 301 299 299 298 298 298 301 303 301 300 298 297 295 295 295 294 294 293 293 293 294 295 296
313 314 316 317 318 319 319 319 318 317 316 314 313 311 299 298 299 297 294 296 294 296 297 296 296 296 295 294 294 293 293 293 293 292 293 293 294 294
309 310 312 312 309 313 317 319 318 316 315 313 311 304 297 294 295 297 297 295 295 292 290 289 288 287 287 292 292 292 292 292 292 292 293 294 293 293
306 308 309 308 311 312 313 312 315 315 314 313 311 307 304 302 298 297 296 291 288 290 287 285 285 283 285 284 290 291 291 291 291 291 292 293 292 292
305 306 307 310 309 312 313 313 312 312 312 315 312 310 308 305 300 296 296 293 288 286 285 282 282 281 283 287 291 291 291 291 291 291 292 292 291 291
302 302 305 306 309 310 311 311 312 314 314 313 314 314 312 309 303 300 296 287 284 285 285 281 282 281 283 284 291 291 291 291 290 290 290 290 290 290
301 301 302 302 304 306 306 307 308 311 303 305 308 309 308 306 301 292 287 286 281 282 283 282 280 280 281 281 282 288 289 289 289 289 290 290 289 290
296 297 300 300 302 303 302 303 304 307 296 293 295 298 299 299 298 296 289 286 283 281 283 281 279 279 277 280 280 281 281 288 288 288 288 289 289 283
290 292 295 299 300 300 300 300 300 306 297 293 289 287 287 287 287 287 288 287 283 282 284 281 276 278 278 277 279 279 278 278 278 280 286 287 287 286
290 291 294 296 297 298 299 301 302 303 292 288 286 285 284 284 285 285 285 285 285 284 286 279 275 275 271 274 274 276 276 277 277 278 278 283 286 287
290 292 295 296 297 298 299 300 301 294 289 286 285 285 285 284 284 283 283 283 283 284 283 279 276 274 272 271 272 273 275 276 278 278 277 277 277 278
291 292 296 298 299 299 298 298 292 290 288 287 286 285 284 283 281 282 280 280 279 279 282 279 278 273 270 272 273 274 274 274 276 276 276 277 277 278
292 293 293 292 293 293 290 286 287 288 285 284 283 282 282 281 280 281 280 280 279 278 277 278 277 276 275 272 275 275 275 274 276 276 275 276 277 277
289 289 288 288 288 289 286 285 285 284 283 283 282 282 281 280 280 281 280 280 279 277 275 272 271 270 269 274 280 274 273 275 276 275 275 274 275 277
286 287 287 286 286 287 285 284 283 283 282 282 281 281 281 280 280 279 280 279 277 274 271 268 266 264 263 264 273 283 276 277 276 275 275 274 274 276
284 284 286 286 285 285 285 283 282 281 281 281 281 281 280 280 279 279 279 276 275 271 270 267 264 261 267 264 269 272 279 274 274 274 274 276 277 282
283 284 286 286 285 285 284 282 282 281 281 281 281 280 280 280 279 279 277 279 277 272 268 265 266 276 262 262 265 270 274 280 279 276 277 277 277 278
282 284 285 286 285 285 282 282 281 282 281 281 280 281 280 280 279 277 277 275 275 271 266 264 264 263 262 265 268 269 272 275 279 282 284 283 279 275
282 283 285 285 285 284 282 282 281 281 281 280 280 280 280 279 278 277 276 276 274 269 268 267 266 263 266 267 274 273 273 275 278 278 279 283 284 285

GFSNE_sfc_thetae_009.txt.gz
Theta_e
325 326 325 325 325 324 323 321 316 310 310 314 314 316 316 316 316 316 315 316 318 320 322 321 321 321 318 316 314 312 310 308 306 305 303 302 302 303
320 320 321 323 323 324 323 322 320 316 311 316 316 318 315 314 315 315 315 312 315 319 318 317 317 316 314 312 310 308 306 305 303 302 302 302 302 302
312 314 315 318 319 320 321 321 319 318 313 316 317 318 316 314 314 313 313 311 311 315 316 315 314 314 311 309 307 305 304 302 301 300 300 300 301 301
309 311 312 314 314 316 317 317 319 319 316 313 316 317 316 314 314 308 307 307 307 310 313 313 312 310 308 306 304 302 301 299 298 298 298 298 298 298
307 307 308 309 309 310 312 313 315 317 317 315 314 317 316 303 301 301 302 302 302 305 310 311 309 307 305 303 302 300 298 298 296 296 295 295 295 296
306 306 306 307 307 307 309 310 312 312 313 313 314 314 315 301 304 303 297 299 298 299 304 306 306 305 304 302 300 297 297 296 296 295 294 293 294 295
304 303 304 305 304 306 308 309 309 310 310 310 310 312 311 296 298 302 302 300 297 296 297 298 298 297 297 300 296 296 295 295 295 294 294 294 294 294
296 299 301 302 303 307 308 309 309 308 307 308 308 308 309 305 305 303 300 293 290 295 292 291 292 291 291 290 293 294 295 294 294 293 293 293 293 294
296 296 298 301 299 301 302 304 305 307 308 308 307 308 309 311 309 303 301 297 296 291 292 289 288 287 288 289 292 293 293 293 293 292 292 292 293 293
294 294 296 293 295 298 299 299 299 301 304 307 308 310 312 313 311 308 304 296 286 287 290 284 285 285 285 286 292 292 293 293 292 292 292 292 292 291
293 294 291 290 295 298 295 295 295 297 301 302 304 304 306 309 310 296 289 289 284 284 284 284 283 283 283 283 285 292 292 292 292 292 291 291 290 291
291 291 293 292 295 296 293 293 292 293 295 297 300 302 301 304 307 304 298 293 285 282 283 282 281 281 279 281 281 281 283 290 290 290 291 290 290 283
289 289 289 292 294 295 296 295 295 297 297 297 298 291 288 288 288 289 291 293 286 285 284 283 281 279 279 278 279 280 279 279 279 281 286 288 288 286
287 288 288 292 293 296 297 299 300 300 297 296 291 287 285 285 285 285 286 285 285 286 285 283 280 279 277 277 276 276 276 277 276 277 277 282 286 287
287 289 292 292 294 294 294 296 297 293 294 292 287 285 285 285 284 283 283 284 284 284 283 281 279 277 277 275 274 274 275 276 276 276 276 276 276 277
288 288 291 291 292 292 291 292 288 289 288 287 285 284 284 283 282 282 281 281 280 279 281 280 278 277 275 273 274 273 274 273 274 274 275 276 277 277
288 287 286 286 286 286 287 288 288 286 285 285 283 283 282 281 280 281 280 280 278 278 278 279 279 278 274 272 269 273 273 273 275 275 275 275 276 277
285 283 282 283 284 285 285 285 286 285 283 283 282 282 281 280 279 280 280 280 278 278 276 277 276 275 270 273 279 272 273 273 274 275 275 273 274 276
281 281 281 282 283 285 285 284 284 284 283 282 282 281 280 280 280 279 279 279 278 275 271 268 270 265 262 266 272 281 275 275 275 275 275 275 274 275
280 280 281 282 283 284 284 284 284 282 281 281 281 280 281 280 279 279 279 277 275 271 268 266 263 262 265 265 266 271 279 274 273 273 274 275 277 281
280 280 281 282 283 284 284 284 282 281 281 280 280 280 280 280 279 279 278 278 275 269 266 265 267 275 259 262 265 269 273 279 278 274 275 275 276 277
280 280 281 282 283 283 284 284 281 282 280 280 280 280 280 280 279 277 275 274 271 268 266 262 261 261 260 265 266 267 271 275 279 282 283 282 278 275
279 280 281 280 281 282 284 283 281 280 280 280 280 280 280 278 277 276 276 274 272 269 266 266 263 261 264 266 269 269 270 273 273 275 278 283 284 285

GFSNE_sfc_thetae_012.txt.gz
Theta_e
311 313 316 317 319 320 320 320 316 311 312 316 315 318 318 317 316 317 316 315 317 318 319 320 321 322 323 323 324 324 324 322 319 316 313 311 308 307
308 308 309 312 313 316 317 317 316 314 309 315 318 319 319 316 316 316 316 313 316 317 318 317 318 319 320 321 321 321 320 318 315 313 311 309 307 305
304 305 306 308 308 310 311 312 312 312 309 312 317 319 319 318 316 315 315 315 315 315 317 318 317 318 318 318 318 317 315 313 311 310 309 307 305 304
301 303 304 306 305 306 307 306 307 309 308 306 310 312 315 317 318 317 314 314 315 314 315 316 317 317 317 316 315 313 311 309 308 306 305 303 303 303
302 303 303 302 301 302 304 303 304 306 307 307 307 310 312 314 313 310 314 313 311 311 314 314 316 316 315 314 311 309 307 306 304 302 301 300 301 301
301 298 297 297 298 300 300 301 304 305 306 305 305 306 308 310 307 309 307 302 305 305 306 309 313 313 314 312 309 306 304 302 301 300 298 298 297 297
293 293 295 297 299 301 300 295 299 300 299 300 301 304 305 305 302 305 304 307 303 304 301 303 307 308 308 308 305 303 301 300 299 299 298 297 296 296
290 290 293 296 297 298 296 297 299 296 296 297 298 298 301 305 307 307 305 303 300 297 297 298 301 300 301 302 302 302 299 299 298 298 297 296 296 295
289 288 289 293 295 291 293 295 295 296 298 296 295 296 297 301 305 304 305 304 302 296 297 295 294 295 294 296 300 299 298 297 296 296 296 295 295 294
288 288 289 291 291 291 290 290 290 292 294 295 296 296 298 300 301 303 304 306 292 291 296 290 288 290 288 291 299 297 296 295 295 295 295 294 293 293
287 288 290 289 292 293 289 288 289 291 296 298 299 299 300 301 302 301 299 293 291 288 288 287 284 283 285 285 290 295 294 293 294 294 294 293 293 292
287 289 291 289 291 292 289 288 288 290 293 295 297 298 299 299 301 300 299 296 293 284 285 286 283 282 280 282 284 285 289 293 293 294 294 293 292 286
285 285 286 290 291 291 292 290 292 293 293 293 293 295 297 297 291 289 290 297 295 286 286 285 282 280 281 279 280 283 283 283 285 288 292 292 292 288
285 285 286 290 291 291 291 293 294 293 290 288 288 290 292 288 285 285 286 286 287 287 287 285 281 280 278 277 277 278 278 279 280 279 279 283 288 289
285 287 288 289 289 288 290 291 291 287 286 286 287 287 287 286 284 283 283 283 282 282 282 282 282 280 279 278 276 276 277 277 277 276 276 276 276 277
286 285 286 286 287 287 287 288 286 286 286 286 285 286 284 283 282 282 282 281 279 278 280 280 280 278 276 277 276 274 275 274 275 275 275 276 276 277
284 283 281 281 281 282 283 284 285 286 285 285 284 283 282 281 280 281 281 280 278 277 277 278 279 278 276 274 271 272 272 272 274 274 275 274 275 276
281 280 279 278 279 281 281 282 284 285 284 284 283 282 281 280 279 280 281 279 277 277 276 277 275 272 271 273 276 270 273 273 274 274 275 273 274 275
278 279 277 278 279 280 280 282 282 284 284 282 282 281 280 280 280 279 280 279 277 275 272 273 268 263 263 266 271 280 273 274 274 274 275 274 274 275
278 278 277 278 279 279 280 280 281 283 282 281 281 280 280 280 279 279 279 277 275 273 268 265 264 260 263 265 266 270 280 275 274 273 273 275 277 281
277 277 277 278 279 279 279 280 281 282 282 281 280 280 280 280 279 279 279 278 276 270 269 266 263 273 259 262 266 270 273 279 277 272 273 273 275 277
277 277 277 278 279 278 278 279 281 282 281 280 279 280 280 280 278 278 277 275 274 272 266 262 262 261 261 264 264 265 269 273 277 281 282 280 275 271
277 277 277 278 278 278 278 279 281 281 280 280 279 279 279 278 277 276 275 274 271 270 268 266 264 261 263 265 264 264 266 270 271 273 278 283 284 284

GFSNE_sfc_thetae_015.txt.gz
Theta_e
304 304 304 306 309 309 310 310 307 302 303 308 311 317 320 320 317 317 317 317 318 317 318 320 320 320 321 322 324 325 325 325 325 326 326 322 320 320
300 300 301 304 305 306 306 306 306 305 301 306 308 311 314 317 318 316 316 314 316 318 318 317 317 318 318 319 320 322 323 323 324 326 326 322 319 317
298 299 300 303 302 301 301 301 302 303 300 302 306 308 309 310 313 316 315 315 316 316 318 318 317 317 317 317 318 319 321 322 322 324 324 321 318 315
296 298 300 298 295 296 297 297 299 299 298 296 301 303 305 309 310 311 313 316 315 316 317 317 316 316 317 316 316 317 318 319 320 321 320 319 316 313
297 296 292 292 291 294 293 294 298 299 293 295 298 302 304 307 308 309 310 312 314 313 315 316 316 316 316 316 316 316 316 316 316 315 315 313 311 309
291 291 290 290 290 292 293 295 292 290 292 294 293 294 297 300 303 303 304 307 307 310 311 312 313 313 314 315 315 314 313 313 313 311 309 307 305 304
286 286 288 291 293 292 292 293 291 289 289 289 290 291 293 295 295 299 300 303 305 305 305 308 307 307 309 312 312 311 311 311 309 308 306 303 302 301
283 285 288 289 289 294 295 294 293 289 288 288 288 287 289 291 294 295 297 297 296 304 304 304 306 303 306 308 311 311 308 307 306 304 302 300 299 299
284 285 286 287 289 290 291 292 292 293 292 289 287 288 289 291 293 293 293 294 295 301 299 299 299 299 303 301 307 307 305 304 303 302 300 299 298 297
285 285 285 286 288 288 287 287 287 288 288 290 290 291 293 295 295 295 295 294 295 297 299 295 296 295 291 294 304 304 303 301 301 300 299 298 297 296
285 286 286 286 289 290 286 285 286 287 291 294 296 297 297 298 298 297 294 292 291 294 293 295 290 285 286 288 296 302 300 300 299 298 297 296 295 295
286 286 289 287 289 290 287 286 285 287 289 291 291 291 293 292 295 296 296 292 292 292 289 290 284 283 281 283 286 296 295 297 296 295 295 295 295 290
284 283 284 288 289 289 289 286 286 289 289 288 287 287 287 288 291 292 292 291 290 289 293 289 283 282 282 279 282 284 285 289 290 292 295 295 294 290
282 284 285 287 287 288 286 287 289 289 286 285 285 285 285 287 288 288 287 286 286 285 290 286 283 281 279 278 277 280 281 282 284 285 287 293 294 293
284 287 286 286 286 284 285 287 287 284 284 283 284 284 285 286 285 284 283 282 281 281 281 283 283 281 281 278 276 277 278 278 280 281 280 281 281 280
287 283 283 284 284 283 282 283 283 283 283 283 284 285 285 284 282 282 282 281 279 278 279 281 280 280 278 278 278 278 278 277 278 278 278 277 278 278
284 280 278 278 278 278 279 280 281 281 282 282 283 282 282 282 281 281 281 280 278 277 276 278 279 278 277 277 276 277 275 274 276 275 276 275 275 276
280 277 276 277 277 277 277 278 280 280 281 281 282 281 281 281 280 280 280 279 277 277 276 277 276 275 275 276 278 273 273 273 274 275 274 273 273 275
278 277 276 276 276 277 277 278 277 279 280 281 282 281 280 280 280 279 279 278 276 275 273 272 272 271 269 268 272 278 273 273 274 273 274 274 273 275
278 276 276 276 276 276 277 277 277 278 279 281 281 280 280 280 279 279 278 276 275 274 272 269 267 264 264 265 267 270 279 274 274 273 273 275 276 280
277 276 277 277 276 277 277 277 277 277 279 281 280 280 279 279 279 279 279 278 276 274 272 269 269 271 257 263 269 269 272 280 277 272 272 272 274 276
276 276 277 277 276 277 277 277 276 277 278 280 279 279 279 279 278 278 277 275 274 273 270 267 266 265 265 264 264 265 268 272 277 281 279 279 274 272
277 277 277 276 276 277 276 276 276 277 279 280 279 279 278 277 277 277 275 274 272 268 267 265 263 260 262 263 263 263 266 268 271 271 276 283 283 283

GFSNE_sfc_thetae_018.txt.gz
Theta_e
297 296 298 299 301 304 304 301 297 292 292 297 300 306 308 311 312 314 315 317 319 319 319 319 319 320 321 323 324 325 326 325 326 326 328 327 327 328
291 295 296 298 300 301 297 297 296 294 291 295 297 299 302 304 307 309 310 311 315 318 319 318 318 318 318 319 320 321 321 322 324 326 327 328 327 327
290 291 296 297 292 292 292 294 293 291 290 293 297 298 292 296 303 307 309 310 312 314 317 318 317 317 317 317 317 319 320 321 322 324 326 326 326 326
288 290 289 290 289 289 290 290 290 291 292 290 291 291 291 297 297 297 300 305 308 312 314 315 316 316 316 316 316 316 317 317 318 320 322 324 324 325
288 287 285 285 284 287 287 287 289 291 292 289 287 290 291 292 294 296 298 301 305 307 311 313 314 315 315 316 316 315 315 315 315 316 317 320 321 323
287 285 284 284 285 286 286 286 288 290 288 287 288 287 288 290 291 290 291 295 296 301 305 307 310 312 313 314 314 313 312 313 314 315 315 315 317 319
284 284 285 287 290 289 288 287 288 287 287 286 286 287 286 286 286 288 289 291 293 296 298 301 303 306 307 309 309 309 310 312 312 314 315 315 315 316
283 284 285 287 287 291 291 291 290 286 285 285 285 284 284 285 287 287 289 288 287 295 295 296 299 301 305 306 308 308 309 310 311 312 313 314 312 310
284 284 284 286 287 286 289 290 289 290 290 287 284 284 284 287 288 287 289 289 289 293 294 292 296 295 299 303 306 307 308 309 310 311 311 308 306 306
284 284 284 285 286 286 285 285 286 286 286 287 288 288 289 290 291 291 290 290 292 293 295 290 294 294 299 300 301 303 305 306 307 308 306 304 303 302
284 285 286 284 287 289 286 284 283 284 288 289 291 292 292 293 292 289 287 286 286 289 294 293 294 294 287 288 292 299 302 306 305 303 302 301 300 299
283 285 286 285 289 289 284 283 281 281 283 285 287 287 288 288 290 288 287 284 285 284 292 292 293 287 285 284 286 291 301 303 302 301 300 299 298 292
283 282 282 287 289 287 287 282 281 284 285 284 283 284 285 286 287 287 288 286 284 283 287 289 287 284 284 281 282 284 294 297 296 297 298 297 295 292
281 282 283 287 286 285 284 285 286 285 281 281 281 282 282 284 285 286 286 286 284 282 282 283 284 285 281 279 280 281 284 285 289 289 290 294 295 293
282 285 285 285 284 282 283 284 283 279 279 279 279 280 282 284 285 284 284 284 282 280 280 281 283 282 282 280 278 278 280 280 285 284 287 290 290 289
285 282 282 282 282 281 280 279 278 279 280 279 279 280 281 282 282 283 281 281 279 279 280 280 279 280 278 279 280 279 280 278 280 282 282 280 282 285
282 279 278 277 276 277 277 277 277 278 279 279 278 278 279 281 281 282 280 280 278 277 276 278 279 279 279 279 277 278 277 278 279 278 279 277 278 279
279 276 276 276 275 276 276 276 276 278 278 278 278 278 279 280 280 281 280 279 277 276 275 275 275 276 276 278 280 275 275 275 276 277 278 276 275 277
276 276 275 275 275 276 276 275 275 277 278 277 277 278 280 280 280 279 279 278 276 275 273 273 271 272 272 271 274 280 275 275 275 275 275 275 274 275
276 276 275 275 275 275 275 275 276 277 276 277 277 279 279 279 279 278 277 276 275 274 273 272 271 270 270 271 272 273 279 275 274 273 273 274 276 281
275 275 275 275 275 276 275 275 276 276 277 276 277 279 279 279 278 278 279 279 276 274 272 270 268 273 263 266 271 271 273 280 277 273 273 272 273 275
275 275 276 276 275 275 275 276 275 275 276 276 279 279 278 278 277 277 276 275 274 273 270 266 266 265 265 267 265 266 270 273 278 280 280 279 274 271
275 276 276 275 275 275 275 275 275 275 276 277 279 277 277 276 276 276 275 274 273 271 270 270 269 266 264 265 266 266 268 270 273 275 278 281 283 286

GFSNE_sfc_thetae_021.txt.gz
Theta_e
292 292 294 296 300 300 298 294 292 286 289 294 294 297 300 303 305 302 301 304 310 312 314 315 316 317 320 321 322 322 323 324 325 327 328 328 328 329
290 291 293 295 294 295 295 293 293 292 289 292 292 294 298 299 300 299 299 304 304 305 306 310 313 315 316 317 319 320 320 321 322 324 326 328 328 328
290 290 292 290 290 290 290 291 292 290 287 289 293 294 296 295 295 297 299 298 301 304 305 309 310 311 313 314 316 317 318 320 321 322 324 325 326 327
288 290 289 288 287 287 287 288 289 289 289 287 290 292 292 293 294 294 296 298 298 301 303 307 304 306 310 312 313 314 315 316 317 319 320 322 324 324
288 288 286 286 285 287 287 288 289 289 290 288 287 290 291 292 292 293 293 295 296 298 300 301 302 304 305 307 310 312 313 314 315 315 316 317 319 321
287 287 286 286 286 287 287 288 288 288 288 288 287 288 288 290 290 287 287 291 292 294 296 297 299 301 304 306 307 308 309 311 313 314 314 314 314 316
286 286 286 287 289 289 288 288 287 287 287 286 286 286 286 287 286 288 286 287 289 291 291 294 297 299 302 302 302 306 308 309 310 311 313 314 313 313
285 286 286 287 288 290 290 290 289 286 285 285 285 284 285 285 287 287 287 286 284 294 292 294 296 295 298 300 301 302 303 307 308 310 310 311 311 311
285 285 285 286 287 287 288 289 289 290 288 286 283 284 284 286 286 286 285 286 286 290 292 288 293 292 297 298 300 301 302 305 306 307 307 308 309 311
285 285 285 286 287 286 286 286 286 286 286 286 286 285 287 288 288 288 288 288 288 290 291 286 290 290 295 297 300 301 303 304 304 305 305 306 308 308
285 285 286 285 287 288 287 285 283 284 286 287 288 289 289 289 288 287 285 284 284 286 290 287 289 289 291 295 298 299 300 300 302 303 305 305 306 306
284 285 286 285 287 289 284 283 281 282 283 284 285 285 286 286 288 287 285 283 283 282 289 285 286 286 286 288 288 289 291 296 298 301 305 304 301 298
284 283 284 286 289 287 286 282 282 284 283 282 281 281 283 284 285 286 286 285 282 282 287 286 284 284 285 287 287 288 287 295 300 302 302 300 298 296
282 283 284 287 285 285 283 284 285 284 281 279 279 280 281 281 283 284 284 286 286 284 287 283 281 283 283 284 284 284 284 289 296 295 294 295 296 295
283 285 285 284 283 282 282 283 283 280 279 278 278 279 280 281 282 283 284 285 285 285 284 282 281 281 282 284 282 281 283 283 289 290 290 288 288 290
285 282 282 282 282 281 280 280 279 279 278 278 278 280 281 280 280 282 283 283 282 282 282 282 281 282 283 285 284 283 282 282 285 284 284 288 289 290
282 280 279 278 278 277 278 278 279 279 278 278 278 278 278 279 280 283 282 282 280 278 279 280 281 282 282 283 280 281 282 281 283 283 282 280 282 287
279 277 276 277 276 276 276 277 277 278 277 278 278 278 278 278 280 282 282 280 278 277 276 276 276 278 280 280 282 278 279 279 281 282 282 280 278 282
277 276 276 276 276 276 276 276 276 277 277 277 277 277 277 279 280 280 279 278 277 276 275 275 274 275 276 273 277 281 277 278 279 278 280 280 279 279
276 276 275 276 276 276 276 276 276 276 276 277 277 277 279 279 280 279 279 278 277 276 275 274 274 272 275 275 275 277 281 279 279 278 277 279 281 282
276 276 276 276 276 276 276 276 276 275 277 276 276 278 279 279 279 279 278 279 278 276 274 273 272 275 272 274 276 275 278 281 280 279 278 278 277 278
276 276 276 276 276 276 275 275 275 275 275 276 277 279 279 279 277 277 276 275 275 275 274 274 274 275 276 276 274 274 276 278 281 281 282 281 280 276
276 276 276 276 276 276 275 275 275 275 276 276 278 279 278 277 276 276 276 276 277 276 275 276 276 275 273 275 275 275 275 277 278 279 281 283 285 284

GFSNE_sfc_thetae_024.txt.gz
Theta_e
292 293 292 293 296 295 294 292 290 286 287 291 292 295 294 296 298 297 300 301 301 300 301 304 303 306 308 311 313 315 317 319 320 321 321 322 325 329
291 291 292 292 294 293 291 290 289 287 286 291 293 292 294 294 297 298 297 298 299 299 299 302 303 303 306 309 309 311 314 316 318 319 321 322 323 323
291 290 290 291 291 290 290 289 288 288 287 289 292 293 292 293 294 294 295 294 296 297 298 299 299 301 304 306 305 308 311 313 315 317 319 321 322 322
289 289 289 289 288 288 288 288 289 289 288 287 289 290 291 292 293 292 293 293 294 295 296 297 297 299 300 302 304 305 306 308 311 314 316 318 320 321
289 288 288 288 287 287 287 288 289 289 289 288 287 290 291 291 290 291 291 292 293 294 294 295 296 297 298 299 301 303 304 306 309 311 313 315 317 318
288 288 288 287 287 287 287 287 288 288 288 287 287 287 289 290 290 289 289 291 291 292 294 294 296 296 297 298 300 301 302 302 306 310 311 312 313 315
288 287 287 288 288 289 287 287 287 287 287 286 286 287 286 286 286 288 287 288 289 291 292 293 294 296 297 298 299 299 300 302 304 304 309 311 311 312
286 286 287 287 287 289 289 289 288 286 286 286 285 284 284 285 287 286 286 285 283 291 289 290 293 293 295 297 298 300 300 301 302 303 303 306 309 310
286 285 285 286 287 287 288 288 289 290 289 286 284 284 284 286 286 285 286 285 285 287 288 285 291 291 294 294 296 297 299 300 301 302 303 305 306 307
286 286 285 286 287 286 286 287 288 287 287 286 286 285 286 287 287 286 286 286 287 289 290 284 291 290 293 294 295 296 298 300 301 302 303 304 304 305
285 285 286 285 287 287 286 285 285 285 286 286 287 288 288 288 287 285 283 283 282 285 289 286 288 288 288 289 293 294 297 299 301 301 302 303 303 304
285 285 286 286 287 288 285 283 282 282 283 285 285 285 285 285 286 285 284 281 281 281 286 284 285 286 284 290 293 291 291 294 296 298 299 300 302 302
285 284 285 286 287 286 285 283 282 283 283 283 282 282 283 284 284 285 284 282 280 281 285 286 284 285 284 284 287 290 291 293 293 295 299 301 302 301
283 284 285 286 285 284 284 284 284 284 282 280 280 280 281 281 282 283 284 284 284 283 285 285 282 283 282 282 282 288 291 288 288 293 296 301 301 300
284 285 286 284 283 283 283 283 283 281 280 279 279 279 280 281 282 282 283 284 284 284 285 284 283 282 281 280 281 285 286 284 289 288 288 290 292 294
285 284 283 283 282 282 281 281 281 281 279 279 278 280 281 281 280 282 281 282 283 284 284 283 283 282 281 281 283 285 285 283 285 287 286 286 287 287
283 282 280 279 279 279 279 280 280 280 279 279 278 278 279 279 279 281 281 283 280 279 280 282 282 282 283 284 284 285 284 283 285 285 285 284 285 286
280 278 278 278 278 278 277 277 278 278 278 278 277 277 277 277 279 282 282 280 279 278 277 277 277 278 282 282 284 282 282 282 284 285 286 284 284 285
277 277 277 277 277 277 277 277 276 277 277 277 277 277 277 279 280 281 281 280 279 278 277 277 276 278 278 275 279 283 281 282 282 283 285 283 282 285
278 277 277 277 277 277 277 276 276 276 276 277 277 277 279 279 279 279 279 279 279 278 277 277 275 274 275 275 275 279 283 282 280 280 280 281 283 289
277 277 277 277 277 277 277 276 276 276 277 276 277 278 280 280 279 279 278 279 278 277 277 276 275 277 275 278 278 277 279 283 283 281 281 280 279 280
277 277 277 277 277 276 276 276 276 276 276 277 278 279 280 280 278 277 278 278 278 278 278 280 280 281 280 278 276 276 278 281 284 284 285 284 281 277
277 277 277 277 277 277 276 276 276 276 277 278 279 280 279 278 278 278 279 280 280 280 279 279 280 279 279 279 278 277 278 279 281 282 282 287 285 285

GFSNE_sfc_thetae_027.txt.gz
Theta_e
292 292 292 292 293 293 294 292 288 283 283 287 287 292 294 293 294 295 293 298 298 299 300 299 299 300 301 303 305 304 305 307 309 313 315 317 319 321
291 291 291 291 291 292 292 291 289 286 282 287 288 290 292 293 294 294 293 297 296 297 298 298 299 299 299 300 301 302 303 305 307 309 312 316 318 319
290 290 290 290 290 290 290 289 288 288 284 286 288 290 290 290 291 292 293 292 293 296 296 297 297 297 297 297 298 300 301 303 305 307 309 312 316 317
289 289 288 289 288 289 288 287 287 287 285 283 286 287 288 289 290 289 291 292 291 294 295 295 296 296 296 297 297 298 299 300 302 304 305 309 312 315
288 288 288 288 287 287 287 286 286 287 287 285 284 287 287 288 288 289 289 288 290 294 294 294 295 295 296 297 297 298 299 299 300 302 304 306 309 311
288 288 288 287 286 286 286 286 287 286 286 285 284 285 286 287 288 285 284 286 287 290 290 291 293 294 295 296 297 298 299 300 300 300 302 304 306 310
287 287 287 288 289 288 286 286 285 285 284 283 283 284 285 283 282 284 283 284 285 286 286 288 289 290 291 294 294 296 298 298 299 300 300 301 303 304
285 286 287 287 288 289 289 289 288 284 283 283 284 282 282 282 283 282 282 281 279 286 286 285 287 286 288 290 293 295 296 296 297 298 299 299 302 303
285 285 285 286 287 286 288 289 288 289 289 284 282 281 281 282 282 282 282 282 281 284 285 282 286 286 289 291 294 294 294 296 296 297 298 300 302 303
285 285 285 285 286 286 285 285 286 285 285 284 283 283 283 284 284 284 283 282 283 284 285 280 284 284 286 289 293 293 294 294 295 296 298 300 301 302
285 285 285 285 287 288 285 284 282 282 286 287 287 287 287 287 286 283 280 279 278 280 284 281 282 283 285 285 287 291 293 294 294 296 299 300 302 303
284 285 287 285 287 288 284 282 279 280 282 282 282 283 284 283 285 283 281 278 278 277 281 280 280 281 279 284 286 287 288 291 292 295 296 299 300 298
283 283 284 286 288 287 286 281 280 283 282 280 280 280 281 281 282 282 282 280 278 278 282 282 280 281 280 280 283 285 286 288 290 290 293 296 298 298
282 283 283 287 285 285 284 284 285 284 280 279 278 278 278 279 280 281 281 282 282 281 283 283 280 280 279 279 278 282 284 286 288 287 291 296 300 300
283 284 287 284 284 282 283 283 283 279 279 278 277 277 278 279 280 280 281 282 282 283 284 284 282 281 279 277 277 278 280 285 285 286 289 291 294 297
284 283 283 282 283 281 280 280 279 279 278 277 277 278 278 278 278 280 279 280 281 281 283 284 282 281 278 280 280 278 282 282 285 285 286 286 289 291
283 280 279 278 277 277 278 278 278 278 277 277 277 276 277 277 278 279 282 281 279 278 278 279 280 280 280 281 282 284 283 283 284 284 286 284 285 289
280 277 276 276 276 276 276 276 277 278 277 277 276 276 276 277 278 280 280 279 279 278 277 277 277 277 280 282 284 281 283 283 284 285 285 284 284 287
277 276 276 276 276 276 276 276 275 276 277 276 276 276 277 277 279 278 278 278 277 278 278 277 275 274 277 274 279 285 281 283 283 283 284 284 284 286
277 276 276 276 276 276 276 276 276 276 276 276 276 276 277 278 277 277 277 277 278 278 278 278 274 274 274 274 276 279 285 282 282 282 282 285 286 291
276 276 276 276 276 276 276 276 276 275 276 276 277 277 278 279 277 278 277 280 280 278 277 277 277 281 275 278 277 277 281 286 284 282 282 281 282 283
276 276 276 276 276 276 276 276 275 275 276 276 277 278 279 278 278 278 278 278 279 280 279 280 279 280 278 277 276 277 279 282 285 287 286 285 281 279
276 276 276 276 276 276 276 275 275 276 276 277 278 279 277 277 279 280 280 280 280 280 279 279 278 279 278 278 277 277 279 280 281 281 281 286 287 288

GFSNE_sfc_thetae_030.txt.gz
Theta_e
285 285 286 288 288 288 288 287 284 280 281 284 284 288 288 289 291 291 290 295 296 297 298 297 298 299 299 299 300 301 302 302 303 304 305 307 311 313
286 285 286 287 287 287 287 287 286 283 280 284 285 286 287 289 291 290 290 294 295 296 296 296 297 297 297 298 299 299 300 300 301 302 304 306 307 310
284 285 286 286 286 286 286 286 285 284 281 283 285 286 286 286 287 288 289 289 290 294 295 296 295 295 296 297 297 297 298 299 300 301 302 304 306 308
284 284 285 287 285 285 285 284 284 284 282 280 284 284 284 286 286 286 288 289 289 292 293 293 294 294 295 295 295 296 296 298 298 299 300 301 303 304
284 284 284 284 284 284 284 283 284 285 285 283 282 284 285 285 285 286 287 287 287 290 291 292 293 293 293 294 295 295 296 296 297 298 299 300 301 304
284 284 284 284 284 283 284 284 285 284 283 282 283 282 283 284 286 283 282 283 283 285 288 289 291 291 292 294 294 294 294 294 295 297 298 299 300 302
283 284 285 286 289 288 285 285 284 283 283 283 282 281 282 280 280 281 280 281 281 283 283 284 285 286 287 290 290 291 292 294 295 296 297 298 300 300
282 283 284 286 286 289 289 289 288 284 282 281 282 279 279 279 281 279 279 278 277 284 282 281 284 283 284 286 290 292 294 294 296 296 296 296 297 299
282 282 283 284 285 283 286 288 288 289 288 283 279 279 279 280 280 280 280 280 280 282 281 279 282 281 285 287 290 291 291 292 294 294 295 296 297 298
283 283 282 282 284 285 284 284 284 284 283 283 281 281 282 283 283 282 281 280 281 281 282 277 281 281 282 284 289 290 290 291 292 293 294 295 296 297
283 283 283 283 286 288 284 283 282 281 284 286 286 287 286 286 285 281 279 277 276 278 280 278 279 279 280 281 284 288 290 292 291 292 293 294 295 298
282 283 286 285 287 288 284 281 279 278 280 281 280 280 282 282 285 281 280 276 276 275 279 277 277 278 277 281 283 284 285 289 290 290 292 294 296 295
281 281 282 285 287 287 286 280 280 283 281 278 278 278 279 279 280 280 280 278 276 276 280 280 279 279 278 278 281 283 284 284 284 285 288 292 294 295
281 281 281 286 285 285 283 284 284 283 278 277 277 277 277 277 278 279 280 280 281 280 281 281 279 279 278 277 276 280 281 282 282 283 287 291 294 296
281 283 286 284 283 281 282 283 282 277 277 277 276 276 277 278 278 279 280 281 281 282 283 281 280 279 277 276 276 277 279 281 283 285 285 288 290 293
284 282 282 281 281 280 279 279 278 278 278 277 276 277 278 277 277 278 278 280 279 280 282 281 280 277 275 277 278 279 280 278 285 285 285 289 291 292
282 278 276 276 275 276 277 277 278 278 277 277 276 276 276 277 277 278 279 279 277 277 278 280 279 278 278 277 279 280 282 283 284 284 286 286 288 291
278 275 275 275 275 275 275 276 276 277 276 276 276 276 275 275 276 278 279 278 276 277 278 278 276 275 278 280 284 280 282 283 284 285 285 286 286 289
275 275 275 275 275 275 275 275 275 276 276 275 275 276 276 276 277 277 277 277 277 279 278 277 275 274 274 273 279 287 281 283 285 284 286 286 284 286
275 275 275 275 275 275 275 275 275 275 275 276 276 276 276 276 277 276 277 277 278 279 278 277 276 276 273 272 275 282 286 283 284 284 285 287 289 292
275 275 275 275 275 276 275 275 275 275 276 275 275 276 276 278 275 277 277 280 281 279 277 276 277 283 279 279 278 279 283 286 286 283 284 285 284 285
275 275 275 276 275 275 275 274 274 275 275 275 276 276 278 277 276 277 278 278 278 279 278 278 279 279 279 278 277 278 280 282 285 287 289 286 281 282
275 275 275 275 275 275 275 274 274 274 275 275 276 277 279 277 277 278 279 279 279 279 277 277 278 277 278 279 279 279 279 279 281 282 285 289 290 290

GFSNE_sfc_thetae_033.txt.gz
Theta_e
283 283 283 285 286 286 286 285 283 278 279 283 283 286 286 287 288 288 288 292 294 295 295 296 297 297 298 299 299 299 299 299 301 302 303 303 304 305
284 282 283 285 285 285 285 285 284 282 278 283 283 285 285 287 289 288 287 291 292 294 295 295 295 296 297 297 296 297 298 299 300 301 302 303 303 303
282 283 283 284 284 284 284 284 284 283 279 282 284 285 284 285 285 286 287 286 287 292 294 295 295 294 294 294 295 296 296 298 299 299 300 302 303 303
282 282 282 285 283 283 284 283 283 283 281 279 282 284 284 285 285 285 286 288 287 291 292 293 293 293 293 293 293 294 294 295 296 297 298 298 300 301
282 282 282 282 282 283 283 282 283 284 284 283 282 283 284 285 284 284 284 284 285 288 290 290 291 291 291 292 293 293 293 294 295 296 296 297 298 300
283 283 282 282 282 282 283 283 284 283 282 281 281 283 282 283 284 280 279 281 281 284 286 287 289 290 291 291 291 291 291 292 293 294 294 295 296 297
282 283 283 285 287 286 284 283 282 282 282 283 281 281 281 279 278 279 279 280 281 282 281 283 284 284 285 287 288 289 290 291 292 293 295 296 296 297
281 282 283 285 285 288 288 288 287 283 282 281 281 278 278 278 279 278 279 278 277 284 282 280 282 281 282 283 287 289 290 291 293 292 294 294 295 296
281 281 282 284 284 283 286 288 287 288 288 283 279 279 278 279 280 280 280 278 278 280 280 278 281 280 282 284 287 288 289 289 290 291 292 293 295 295
281 281 281 282 283 284 283 283 284 284 282 282 281 281 282 283 282 280 280 279 280 280 280 275 279 278 280 281 286 287 288 289 289 290 291 292 293 294
282 282 283 282 285 287 284 283 281 280 283 285 286 286 285 285 284 281 277 276 274 276 279 277 277 277 278 279 282 286 288 289 290 291 292 292 293 294
282 282 285 283 286 288 283 281 277 277 280 281 279 279 281 281 284 280 278 275 275 274 278 277 277 277 276 280 281 282 282 287 288 289 290 291 291 289
281 280 281 285 288 286 285 279 279 282 281 277 277 278 279 279 279 280 280 278 275 275 279 280 278 278 277 277 280 281 282 282 283 284 287 288 290 290
280 280 281 286 284 283 282 283 284 283 278 277 277 277 277 277 278 279 279 279 280 279 281 282 279 278 276 274 274 279 280 281 281 281 282 285 289 291
282 284 284 283 282 280 281 282 282 277 277 276 276 276 277 278 278 278 279 280 280 281 282 282 281 280 277 274 274 276 279 280 282 282 283 284 285 287
283 280 280 280 280 280 279 279 278 278 277 276 275 276 277 277 277 278 277 277 278 278 281 282 282 279 275 275 276 276 280 280 282 285 285 285 287 289
281 277 276 275 275 276 276 277 277 277 276 276 276 275 276 276 276 277 278 278 276 277 277 280 280 279 277 276 275 279 281 282 285 284 285 287 289 290
277 274 274 274 274 275 275 275 276 276 276 275 275 275 275 275 276 278 278 277 276 277 278 278 278 276 277 279 283 281 282 282 285 285 285 286 285 291
275 274 274 274 274 275 275 275 274 275 276 275 275 275 275 275 276 276 276 277 277 279 279 278 277 275 273 273 278 287 281 283 286 285 285 285 285 288
275 274 274 274 275 275 275 274 274 274 274 275 275 274 275 275 275 275 275 276 278 278 278 277 277 277 274 274 273 281 286 284 283 284 285 286 288 291
274 274 275 275 275 275 274 274 274 274 275 274 274 274 275 275 276 276 276 280 280 278 276 276 277 284 281 280 279 280 283 288 288 285 286 285 285 286
274 274 275 275 274 274 274 274 273 274 274 274 274 274 276 276 277 277 276 277 278 278 277 276 279 280 280 279 278 278 280 285 288 289 289 288 285 283
274 275 274 274 274 274 274 273 273 273 274 274 274 275 276 277 279 278 277 278 278 278 273 275 277 279 279 280 279 278 279 282 284 284 285 290 289 289

GFSNE_sfc_thetae_036.txt.gz
Theta_e
281 281 281 282 283 283 283 283 280 276 277 281 282 284 284 286 287 287 286 291 293 294 294 294 295 296 297 298 298 299 299 300 300 301 301 301 302 304
283 281 281 282 283 283 283 283 282 280 277 282 282 283 285 286 287 287 287 291 292 293 293 293 294 295 295 296 297 298 297 298 298 299 301 302 302 303
281 281 281 282 282 282 283 283 282 282 278 281 283 284 284 284 285 286 286 286 286 291 293 292 293 293 293 294 295 295 296 296 297 298 299 300 301 302
280 281 281 283 281 282 282 281 282 282 281 279 282 283 282 283 284 284 285 287 286 289 290 291 291 291 292 292 292 293 293 294 295 296 297 297 298 299
280 280 281 281 280 281 281 281 282 283 283 280 279 282 282 284 283 284 284 282 283 286 289 289 290 290 291 291 292 292 292 293 293 294 295 295 296 298
281 281 281 281 281 281 282 282 283 281 281 280 280 282 282 283 283 279 278 280 280 282 285 287 289 289 290 290 290 290 290 291 291 292 292 293 294 295
280 281 282 284 287 286 284 283 282 281 282 282 280 280 281 278 277 279 278 279 280 282 282 282 283 283 283 286 287 288 288 289 290 291 292 292 293 294
280 281 282 284 284 287 287 287 286 283 280 280 280 278 277 278 279 278 278 278 275 281 279 279 281 280 281 282 286 287 288 289 290 290 291 293 293 294
279 280 281 283 284 282 285 287 286 288 286 282 278 277 277 278 280 279 278 277 276 279 279 277 279 278 280 282 286 287 288 289 289 289 290 291 292 292
280 280 280 281 282 283 282 282 283 281 281 281 280 281 282 282 281 280 279 279 279 279 279 274 278 277 279 280 285 287 287 288 289 289 290 291 291 292
281 281 283 281 284 287 284 281 279 279 282 285 286 285 284 285 284 281 277 276 274 276 278 276 277 277 279 279 281 286 287 288 289 289 290 291 292 292
282 282 284 283 286 288 282 279 276 277 280 281 278 279 281 280 284 280 278 275 274 273 278 276 276 277 276 281 281 282 282 286 287 288 289 290 290 288
280 280 280 285 286 285 284 278 278 282 280 277 277 277 279 279 279 279 279 277 275 274 278 279 277 277 277 277 279 280 279 280 281 283 287 288 289 289
280 280 282 285 284 283 281 283 284 282 277 276 276 276 276 276 277 278 279 279 279 278 280 280 277 278 277 276 275 277 278 279 281 281 282 285 288 289
281 283 284 283 282 280 281 282 282 277 276 275 275 275 276 277 278 278 279 279 279 280 281 281 280 279 278 275 275 275 276 279 281 281 282 282 282 284
283 279 280 280 280 279 278 278 277 277 277 276 275 276 276 276 276 277 276 277 277 278 281 282 282 280 276 275 275 275 278 277 282 284 284 284 284 285
281 277 275 275 275 275 276 276 276 276 276 275 275 274 274 275 275 276 277 277 276 276 278 281 281 280 278 276 275 279 282 282 285 285 284 286 285 286
277 274 274 274 274 274 274 275 275 276 275 275 274 274 274 274 274 276 275 276 275 277 279 279 278 277 278 279 283 281 283 283 285 285 286 287 287 289
274 274 273 273 273 274 274 274 273 274 274 274 273 274 274 273 275 274 275 276 275 278 279 279 278 277 274 274 279 286 283 284 285 285 285 286 285 288
274 273 273 274 274 274 274 273 273 273 273 273 274 273 274 274 273 274 276 275 277 278 278 278 278 278 276 275 275 278 286 285 284 285 285 286 287 291
273 273 274 274 274 274 274 273 273 273 274 274 273 273 274 274 274 274 277 280 280 277 276 277 278 285 282 282 279 280 285 287 287 285 285 285 284 285
274 274 274 274 274 273 273 273 272 272 272 273 273 274 274 275 275 275 278 276 277 277 275 277 280 280 280 279 278 280 283 285 288 288 289 288 285 281
274 274 274 273 273 273 273 272 272 272 273 273 273 274 275 275 276 277 278 278 278 277 270 275 278 280 279 279 279 281 282 283 284 284 285 290 290 289

GFSNE_sfc_thetae_039.txt.gz
Theta_e
280 280 280 281 282 282 282 281 279 275 276 279 279 283 284 285 286 286 286 290 293 294 295 294 294 295 295 296 297 297 298 299 300 301 302 302 303 304
281 280 280 281 281 281 281 281 281 279 276 280 281 283 284 285 287 286 286 290 292 293 293 293 293 293 293 294 295 295 296 296 298 300 301 301 302 302
280 280 280 281 281 281 281 281 280 280 277 280 282 283 283 282 283 284 285 285 286 291 292 292 292 291 292 292 293 294 295 295 296 297 299 299 300 300
280 279 280 283 280 280 280 280 280 281 279 278 281 281 281 282 283 283 285 287 286 289 290 290 291 291 291 292 292 292 293 293 294 295 296 297 298 299
280 279 280 280 279 280 280 280 281 283 282 280 279 281 282 283 283 284 283 282 283 286 288 289 289 290 290 291 291 291 292 292 293 293 294 295 296 297
280 280 280 280 280 280 282 282 283 280 280 280 280 281 281 282 281 278 278 280 280 282 285 286 288 289 289 289 289 289 289 290 291 291 292 292 293 294
279 280 281 283 286 285 284 281 281 281 280 280 280 279 278 277 276 278 277 279 280 282 280 281 281 281 282 285 286 287 287 288 289 290 291 291 292 292
279 280 280 283 283 287 287 287 286 282 281 280 278 276 276 276 278 278 279 277 275 281 279 279 281 280 280 281 285 287 288 289 289 290 291 291 292 292
279 280 280 282 283 281 284 286 286 287 286 280 277 276 276 278 280 278 278 278 277 280 280 277 279 278 280 281 285 286 287 288 289 289 290 290 291 291
279 279 279 280 281 283 283 284 280 280 280 280 279 280 282 281 280 280 279 279 279 279 279 274 278 277 279 280 285 286 287 288 288 289 290 290 290 291
280 281 282 281 284 287 283 280 279 278 282 284 286 285 284 285 284 281 277 275 274 275 278 276 276 276 278 279 281 286 287 288 288 289 289 289 290 291
282 281 284 283 286 287 282 279 276 277 280 280 278 279 280 280 283 280 278 274 274 273 277 276 276 277 275 279 280 281 281 286 287 287 288 289 289 287
280 280 280 285 286 285 284 278 278 282 280 276 277 277 278 278 279 279 279 277 275 274 278 279 277 276 276 276 279 280 281 281 281 282 285 287 288 289
280 280 281 285 284 283 282 283 284 282 276 276 276 276 275 276 276 277 278 278 279 278 279 279 277 277 276 276 275 278 279 281 281 280 280 283 287 288
281 283 284 283 282 280 281 282 281 276 276 275 275 274 275 276 276 276 277 277 278 280 281 280 280 279 279 277 275 276 278 279 281 280 281 281 281 282
282 279 280 280 280 279 278 277 276 276 276 275 274 275 275 275 274 275 275 275 276 277 280 282 283 281 278 278 277 276 279 278 283 284 284 284 282 282
281 277 275 275 274 274 275 275 276 276 275 274 274 273 273 273 274 275 275 275 274 275 276 281 282 281 281 279 277 279 282 284 285 285 285 284 282 283
277 273 273 273 273 273 274 274 275 275 274 274 273 273 272 273 273 274 274 274 275 276 277 279 279 278 280 279 284 281 283 284 285 285 285 286 284 284
274 273 273 273 273 273 273 273 272 273 274 273 272 272 274 272 273 273 273 275 275 277 279 279 278 277 276 275 280 286 281 284 285 285 285 285 285 287
274 273 272 273 273 273 273 273 273 273 272 272 273 273 272 273 272 272 273 274 277 278 277 279 278 278 278 276 277 281 287 284 284 284 285 286 287 291
273 273 273 273 273 273 273 273 272 272 274 273 272 273 273 273 272 273 274 278 280 276 276 276 279 285 281 282 280 282 285 287 287 285 285 285 284 284
273 273 273 273 273 273 272 272 272 272 272 272 272 273 273 274 274 275 275 275 277 277 276 277 280 280 278 279 278 281 282 285 288 289 289 288 284 281
273 273 273 273 272 272 272 272 272 272 273 273 273 273 274 274 275 276 277 278 277 278 269 274 278 279 280 279 280 280 281 282 284 284 285 290 290 289

GFSNE_sfc_thetae_042.txt.gz
Theta_e
279 279 279 280 281 281 280 280 278 274 275 278 278 282 283 284 286 286 285 290 292 293 294 294 294 295 295 296 297 297 297 297 298 299 300 301 302 304
280 279 279 280 280 281 280 280 280 278 275 280 280 282 283 284 286 285 284 289 290 292 292 293 293 293 294 294 294 295 295 295 297 298 299 300 301 302
279 279 279 280 280 280 280 280 279 279 277 279 281 282 282 282 283 283 285 284 285 290 291 292 292 292 292 292 293 294 294 295 296 297 298 299 299 300
279 279 279 282 279 279 280 279 279 280 279 277 280 281 281 282 282 283 285 286 284 288 289 290 290 291 291 291 292 292 293 294 294 294 295 296 297 298
279 279 279 279 278 279 279 279 280 282 282 279 278 281 282 283 282 282 281 281 282 286 288 288 289 290 290 291 291 291 291 292 292 293 293 294 295 296
279 279 279 279 278 279 280 281 282 280 280 280 280 280 281 280 279 277 277 279 279 282 285 286 288 288 289 289 289 289 289 289 290 291 291 292 292 293
279 279 280 282 286 286 283 281 281 280 280 281 280 278 277 277 276 278 277 278 280 281 280 281 281 281 282 285 286 287 287 288 289 290 291 291 291 292
279 279 279 283 282 287 287 287 286 283 281 279 277 276 276 276 278 278 279 277 275 281 279 279 281 280 281 281 285 287 288 288 289 290 290 291 291 292
278 279 280 282 283 280 284 286 287 287 285 280 277 276 276 278 280 278 278 277 277 279 279 276 279 278 280 281 285 286 287 288 289 289 290 290 291 292
278 278 278 279 280 283 283 283 280 280 280 280 279 280 282 281 280 280 279 279 279 279 279 274 278 276 279 280 285 286 287 288 288 289 289 290 290 291
280 279 280 281 284 287 284 280 279 279 282 285 286 285 284 285 284 280 276 275 274 275 278 276 276 276 278 279 280 285 286 287 288 289 290 290 290 291
280 280 284 283 286 287 282 279 276 277 279 281 278 278 280 279 283 279 277 273 273 272 277 275 276 277 275 279 280 281 281 285 287 288 289 290 290 287
279 280 281 285 286 285 285 278 278 282 280 276 276 276 277 277 277 277 278 276 273 273 277 278 276 276 276 276 279 281 282 282 282 283 286 288 289 289
280 280 281 285 284 283 281 283 284 282 276 275 275 275 275 275 275 276 277 277 277 276 278 277 276 276 276 275 276 279 281 282 282 281 282 285 287 288
281 283 284 283 282 279 280 282 281 276 275 274 274 274 274 275 275 275 275 276 276 277 279 279 279 279 279 278 277 278 280 281 282 282 282 282 281 281
282 280 280 280 279 279 277 277 276 276 276 275 274 274 274 274 273 274 273 274 275 275 279 281 282 281 279 279 279 278 280 279 284 286 285 286 283 283
281 276 274 274 274 274 274 275 275 275 275 274 273 273 273 273 272 274 274 274 273 274 276 279 283 282 281 280 279 280 282 283 285 285 285 284 282 282
276 273 273 273 272 273 273 273 274 275 274 274 273 273 272 272 273 274 273 273 273 274 275 279 279 279 280 281 284 282 283 283 285 285 285 284 284 283
273 272 272 272 272 273 273 273 272 273 274 273 272 272 273 273 273 272 272 273 273 274 278 278 278 278 275 275 281 287 283 284 285 285 285 285 284 285
273 272 272 272 272 272 272 272 272 272 272 272 273 273 272 272 272 272 272 273 275 277 276 278 278 278 278 276 277 281 287 284 284 284 284 285 287 292
272 272 273 272 272 273 273 272 272 272 273 273 272 272 272 272 272 272 273 278 279 275 275 276 279 285 281 281 279 281 284 287 287 285 285 284 283 284
272 272 273 273 273 272 272 272 272 272 271 272 272 272 273 273 273 274 275 275 276 277 276 277 279 280 279 278 279 280 282 284 287 289 289 288 283 280
272 272 272 272 272 272 272 271 271 271 272 272 272 272 273 273 275 275 276 277 278 277 271 272 277 278 278 279 280 279 280 282 283 283 285 289 290 289

GFSNE_sfc_thetae_045.txt.gz
Theta_e
286 285 285 286 286 286 286 285 282 278 280 283 283 287 287 287 288 288 288 290 292 293 293 293 294 294 295 295 296 296 297 297 298 299 299 300 301 302
286 285 285 285 286 286 285 285 284 282 279 283 284 285 286 286 288 287 287 289 290 291 292 292 292 293 293 294 294 295 295 296 297 298 299 299 300 301
285 285 284 285 285 285 285 284 283 283 280 282 285 286 285 285 286 287 288 287 288 290 291 291 291 292 292 293 293 294 294 295 296 297 297 298 299 300
284 284 284 284 284 284 284 283 283 284 282 280 283 284 284 285 286 285 285 285 285 287 289 290 291 291 291 292 292 293 293 293 294 295 295 296 297 298
284 283 283 283 282 283 283 283 283 283 284 283 282 284 285 286 284 284 283 284 284 287 288 289 289 290 291 291 291 292 292 292 292 292 293 294 294 296
284 284 284 283 283 283 283 284 284 283 283 283 282 283 283 284 283 282 281 283 283 285 286 287 288 289 289 290 290 289 289 290 291 291 292 292 292 293
284 284 284 285 287 287 285 284 283 283 283 283 282 281 281 281 280 281 281 282 283 284 284 284 285 285 286 287 287 287 287 288 289 290 291 291 291 292
283 284 284 284 284 287 286 287 286 284 284 282 281 279 280 280 281 281 281 279 278 284 282 282 285 283 284 285 286 287 288 289 289 290 290 291 292 292
283 283 283 283 285 283 285 287 287 287 286 283 280 279 280 281 282 281 280 280 279 282 282 278 283 282 284 284 286 287 288 288 289 290 290 291 291 291
283 283 282 283 284 284 284 285 284 283 283 283 282 283 284 284 283 282 281 281 281 282 282 277 281 280 283 284 286 287 288 288 289 289 290 290 291 291
283 283 283 283 285 287 285 282 281 281 283 285 286 286 285 285 284 282 279 277 276 277 281 279 280 280 281 282 284 286 287 288 288 289 290 290 291 291
284 283 285 284 286 287 283 282 279 279 281 283 280 280 281 281 283 281 279 275 275 274 280 277 278 279 276 282 284 285 285 287 288 289 290 290 291 289
282 282 283 285 286 285 285 281 280 283 282 279 278 279 279 280 280 280 280 277 275 275 279 279 278 278 277 278 282 284 284 285 286 286 288 289 290 289
282 283 283 285 284 283 282 282 284 283 278 277 277 278 278 278 279 279 279 279 279 277 279 278 276 277 277 277 278 284 285 286 287 287 287 288 289 291
283 284 284 283 282 280 280 282 281 277 277 276 277 277 277 278 278 278 278 278 278 279 280 280 279 279 280 279 279 281 282 285 287 285 287 286 286 285
283 282 281 280 280 279 278 278 277 277 277 277 276 277 278 277 276 278 276 277 276 277 281 282 282 282 282 282 281 281 284 282 286 286 286 286 287 285
282 279 276 276 275 275 276 276 277 277 276 276 276 275 275 276 275 277 276 276 275 275 277 281 283 284 284 283 281 284 284 285 286 285 285 285 286 285
278 275 274 274 274 274 274 274 275 276 276 275 275 275 274 274 275 276 276 275 275 276 277 280 281 281 282 285 287 284 285 284 285 286 286 284 285 283
274 274 273 273 273 274 274 274 274 275 275 275 274 274 275 275 274 274 275 276 276 277 279 281 280 280 278 278 285 287 283 284 284 285 286 285 284 285
274 273 273 273 274 274 274 274 274 274 274 274 275 275 274 274 274 274 275 275 276 279 279 281 281 281 279 279 280 284 286 285 284 284 284 286 287 289
273 273 273 274 274 274 274 274 273 273 275 274 273 274 274 275 274 275 276 278 279 278 278 279 281 284 283 284 283 283 286 287 287 285 285 284 283 284
273 273 274 274 274 273 273 273 273 273 273 273 274 274 275 275 275 276 277 277 278 279 279 281 282 283 282 281 281 282 284 286 288 288 288 288 283 280
273 273 273 273 273 273 273 273 273 273 273 273 274 274 275 275 277 278 278 279 279 280 280 279 281 282 281 281 281 282 282 283 285 284 286 289 289 289

GFSNE_sfc_thetae_048.txt.gz
Theta_e
290 290 289 290 290 289 289 288 285 281 282 286 286 290 290 290 290 290 289 291 293 293 294 294 294 294 295 296 296 297 297 298 298 299 299 300 301 302
290 289 289 289 289 289 289 288 287 284 282 286 286 288 289 288 290 289 289 291 291 292 293 292 293 293 293 294 295 296 296 297 298 298 299 300 300 301
289 288 288 288 288 287 287 287 286 285 283 285 287 287 287 287 288 289 289 288 290 290 291 291 292 292 293 293 294 294 295 296 296 297 298 299 299 300
288 288 287 287 286 287 286 285 285 286 285 283 285 286 286 288 288 287 288 287 288 289 291 291 292 292 292 292 293 293 294 294 295 295 296 297 298 298
288 287 287 286 285 286 286 286 286 285 286 285 284 287 288 288 287 286 286 287 287 289 290 290 291 291 291 292 292 292 292 293 293 293 293 294 295 296
288 287 287 286 285 285 286 285 285 285 285 284 285 285 287 287 286 284 283 286 285 287 288 289 290 290 291 291 291 291 291 291 292 292 292 292 293 294
288 287 287 287 287 287 285 285 285 284 285 285 284 284 284 284 282 284 283 284 285 286 286 287 287 288 288 289 289 289 289 290 290 291 292 292 292 293
286 286 286 286 286 287 288 288 286 284 285 284 283 282 282 282 284 283 282 282 280 286 284 284 286 286 287 288 289 289 290 290 290 291 291 292 292 292
286 285 285 285 286 285 286 287 288 289 288 285 282 281 281 283 283 283 282 281 280 284 283 281 285 284 287 287 288 289 290 290 290 291 291 291 292 292
286 286 285 285 285 285 285 286 286 285 285 284 283 284 285 285 285 283 283 282 283 284 284 279 284 283 286 287 288 288 289 289 290 290 291 292 292 292
286 286 286 285 286 287 285 285 283 283 285 286 287 287 287 286 285 283 281 279 277 280 283 281 282 282 283 284 287 288 289 289 290 290 291 291 292 292
285 286 286 286 286 287 285 283 281 281 282 284 284 283 284 284 285 283 282 278 278 277 282 280 280 280 278 283 286 286 287 289 290 290 291 291 291 289
284 284 285 286 287 286 285 282 281 283 283 282 281 282 282 283 283 283 282 280 278 277 282 280 279 278 278 279 283 285 286 288 289 289 290 291 291 291
283 284 285 286 285 284 283 283 284 284 281 280 279 279 281 281 282 282 281 281 281 279 281 280 277 278 277 278 278 284 286 288 289 288 289 290 292 292
284 285 285 284 283 282 282 282 282 280 279 278 278 279 280 281 281 281 281 282 281 281 282 282 281 280 280 278 279 282 284 286 288 288 288 287 287 287
285 284 283 282 281 281 280 280 280 280 279 279 278 279 281 280 279 280 279 279 279 280 283 284 283 283 281 282 282 282 284 283 287 287 286 287 288 288
283 281 279 278 278 278 278 279 280 279 278 278 278 278 278 279 278 280 279 279 277 277 279 283 285 285 285 283 281 284 285 285 287 286 285 285 287 287
279 277 277 277 277 277 276 277 278 278 278 278 277 277 277 277 278 279 279 278 277 278 279 281 283 283 284 286 288 285 286 285 285 286 286 285 285 286
277 276 276 276 276 276 276 277 277 278 278 278 277 277 278 278 277 277 278 278 278 280 280 282 283 282 279 279 285 289 284 285 285 285 285 285 284 286
277 276 276 276 276 276 277 277 277 277 277 277 277 277 277 277 277 277 278 278 278 280 280 281 283 282 280 280 280 284 287 285 284 284 284 286 288 290
276 276 276 276 276 276 277 277 276 276 277 277 276 276 277 277 277 277 278 280 280 280 279 279 283 286 284 285 283 284 287 288 287 285 285 284 284 285
276 275 276 276 276 276 277 277 276 276 276 276 276 277 277 278 277 278 279 279 280 280 281 282 284 284 284 283 282 283 285 286 288 289 289 288 284 281
275 275 276 276 276 276 276 276 276 276 276 276 276 277 277 277 279 279 280 281 281 282 281 281 283 284 284 284 283 283 284 284 285 285 287 290 289 289

GFSNE_sfc_thetae_051.txt.gz
Theta_e
291 291 290 291 291 290 290 288 285 281 282 286 286 289 290 290 291 289 289 292 294 295 295 295 295 295 295 296 296 297 297 298 299 299 300 301 301 302
290 290 290 290 290 290 289 288 287 284 281 285 286 288 289 289 290 289 289 292 293 293 294 293 293 294 294 295 295 296 297 297 298 299 300 301 301 301
290 289 289 289 288 288 288 287 286 285 282 284 287 288 286 287 288 289 290 288 289 292 292 293 293 293 294 294 295 295 296 296 297 298 299 300 300 300
289 288 288 288 287 287 287 286 286 286 284 282 284 285 286 287 287 288 288 288 287 290 292 292 293 293 293 293 294 294 294 294 295 296 296 298 298 299
289 288 287 287 286 286 286 285 286 286 285 283 283 285 286 287 287 286 286 286 287 289 291 291 292 292 293 293 293 293 293 293 294 294 294 295 296 297
289 288 288 287 285 285 285 285 285 284 284 283 282 283 285 286 285 283 282 284 284 286 288 289 291 291 292 292 292 292 291 292 293 293 293 293 293 294
288 288 287 288 288 288 286 285 285 283 283 282 282 283 282 282 281 282 281 282 283 285 284 284 285 285 286 289 289 290 291 292 292 292 293 293 293 294
286 286 287 288 287 288 288 288 287 284 283 283 283 281 281 281 282 281 281 280 278 284 283 281 284 283 284 285 289 290 291 291 292 292 293 293 293 294
286 286 285 286 287 285 287 288 287 288 288 285 282 281 280 281 282 281 281 280 279 282 282 280 283 282 284 285 289 290 291 291 291 292 292 292 293 293
286 286 285 285 286 286 285 284 285 285 285 285 283 283 283 284 284 284 282 281 281 282 283 278 281 280 283 284 288 289 290 291 291 292 292 292 292 293
286 286 286 285 287 288 285 283 283 283 286 287 287 287 288 288 286 283 280 279 277 278 281 279 280 280 280 280 283 288 289 290 290 291 292 292 292 293
285 285 287 286 288 288 285 282 280 281 281 282 283 283 284 284 286 283 282 278 277 276 280 278 278 278 275 280 282 282 283 287 289 290 292 292 292 289
283 283 284 287 287 287 287 282 281 283 283 281 281 281 281 281 282 283 282 280 277 276 280 279 277 277 276 276 279 281 282 283 285 286 291 292 292 292
282 283 284 286 287 286 284 284 285 284 280 279 279 278 279 280 281 281 281 281 281 279 280 280 277 277 276 275 275 280 282 283 285 285 287 290 292 292
284 285 286 286 285 283 283 284 283 280 279 278 278 279 279 280 280 280 281 281 281 280 280 280 280 280 279 277 277 279 281 283 285 285 287 287 287 287
284 283 283 283 283 282 281 280 280 280 279 279 278 278 279 279 278 279 278 278 278 278 280 280 282 282 280 280 280 280 282 281 285 286 286 286 287 288
283 280 279 278 278 278 278 279 279 279 278 278 278 277 277 277 277 278 278 278 277 277 278 280 283 283 283 283 281 282 282 284 286 285 285 285 286 287
279 277 277 277 277 277 276 276 277 278 278 278 277 276 276 276 276 278 278 277 276 277 278 280 281 281 281 284 287 283 283 284 285 285 285 284 284 287
277 276 276 276 276 276 276 276 276 277 278 277 277 276 276 276 276 275 276 277 277 278 278 280 280 279 277 276 282 288 283 283 284 284 285 284 284 285
277 276 276 276 276 276 276 276 276 276 276 276 276 276 276 275 275 275 276 276 277 278 279 280 280 280 278 278 279 282 286 285 284 283 283 285 287 290
276 276 276 276 276 276 276 276 276 276 277 277 275 276 276 276 275 276 277 279 280 279 278 279 282 286 284 284 281 281 284 287 287 284 284 284 283 284
276 276 276 276 276 276 276 276 275 275 275 275 275 276 276 277 276 276 277 277 278 279 279 282 283 282 282 281 280 281 282 284 287 288 289 288 284 281
276 276 276 276 276 276 276 275 275 275 275 275 275 276 276 276 277 277 278 279 280 281 281 280 280 282 281 282 282 281 282 282 283 283 285 290 290 289

GFSNE_sfc_thetae_054.txt.gz
Theta_e
285 285 285 286 286 285 285 284 280 278 279 280 280 285 284 286 287 288 287 292 294 295 296 295 296 296 296 297 297 297 298 298 299 300 301 301 302 303
286 285 285 285 285 284 284 284 282 280 278 281 282 282 284 287 288 288 287 291 293 294 294 294 294 295 295 296 296 297 297 298 298 299 300 301 302 302
285 285 285 285 284 283 283 282 281 281 279 281 283 284 283 284 285 285 287 286 288 292 293 293 294 294 295 295 295 296 296 297 297 298 299 300 300 301
285 284 284 286 283 283 282 281 281 281 281 279 282 282 282 284 284 284 287 288 286 289 292 293 293 293 294 294 294 295 295 295 295 296 297 297 298 299
285 284 284 283 282 281 281 280 281 284 282 280 280 282 282 283 284 285 284 284 285 289 290 291 291 292 293 293 293 293 293 293 294 294 294 295 296 297
285 285 284 283 282 281 282 281 282 281 281 280 280 281 282 284 283 281 280 282 282 285 287 289 290 290 291 291 291 291 291 291 293 293 294 294 294 295
284 284 284 286 289 288 284 281 281 281 280 280 281 281 281 281 280 280 279 280 281 283 283 283 283 283 284 287 288 289 290 292 292 293 294 294 294 295
282 283 283 286 285 289 289 289 287 283 281 280 281 280 280 279 280 279 279 279 278 283 280 280 282 281 283 283 288 290 290 291 292 292 293 294 294 294
281 281 282 285 285 282 286 288 287 288 288 284 281 279 279 280 279 279 280 281 279 281 280 279 281 280 282 283 287 289 290 290 291 292 292 293 294 294
281 281 281 281 282 284 283 279 281 282 283 283 282 282 281 283 284 284 281 280 281 281 281 277 280 279 280 282 287 287 288 290 291 291 291 292 293 293
282 282 283 282 286 288 284 281 281 281 285 286 287 287 288 288 286 282 279 278 277 278 280 278 278 278 279 279 281 286 287 288 288 289 291 291 292 293
281 282 286 285 287 288 284 282 279 279 279 280 281 282 282 280 285 280 280 277 276 275 278 277 276 277 274 278 277 280 280 285 287 288 290 290 291 290
280 280 281 287 287 288 287 281 280 283 283 280 278 278 279 279 280 281 281 279 277 275 279 279 277 276 276 274 277 279 280 281 282 284 287 290 291 291
280 280 281 286 287 286 284 284 285 284 278 277 277 277 277 278 279 279 280 280 281 279 281 280 277 276 276 275 274 279 280 282 282 283 284 288 290 292
282 284 286 285 285 282 283 284 283 277 277 276 276 277 277 278 278 278 279 279 280 280 280 279 278 278 278 276 276 278 279 282 284 283 285 286 286 287
283 280 283 282 282 281 279 279 277 277 277 277 276 277 278 277 276 277 277 277 276 276 280 278 279 280 278 279 279 279 281 280 283 284 285 286 287 287
283 278 276 275 276 276 276 277 277 277 276 276 276 276 276 276 275 277 276 277 276 275 276 279 280 282 282 281 279 280 281 282 284 285 285 284 285 286
278 275 274 275 275 275 275 275 276 276 276 276 276 275 275 275 275 276 276 275 275 275 277 278 279 279 279 280 285 281 282 281 283 284 284 283 283 285
274 274 274 274 274 274 274 274 274 275 276 275 275 275 275 275 275 274 274 275 274 275 276 278 279 278 276 275 281 287 282 282 283 283 284 284 283 284
274 273 273 274 274 274 274 274 274 275 275 275 275 276 275 275 274 274 274 274 275 276 277 278 278 279 278 278 278 281 286 283 283 282 283 285 286 289
274 273 274 274 274 274 275 274 274 274 276 276 275 275 275 275 274 275 275 278 279 276 275 277 279 285 283 281 279 280 283 287 286 284 284 283 282 284
274 274 274 274 274 274 274 274 274 274 274 274 274 275 275 276 275 275 276 275 276 277 278 280 282 281 279 279 278 280 282 283 286 287 288 287 283 281
274 274 274 274 274 274 274 274 274 274 274 274 274 275 276 275 277 276 276 277 277 278 280 279 280 280 279 279 281 281 281 281 282 282 283 288 289 289

GFSNE_sfc_thetae_057.txt.gz
Theta_e
285 285 285 285 285 284 284 283 280 276 278 278 279 282 283 284 286 287 286 291 294 294 295 296 296 296 296 297 298 298 299 299 300 300 301 302 302 303
286 284 284 284 284 283 283 282 281 279 276 279 280 280 282 285 287 287 286 290 291 293 294 294 294 295 295 296 296 297 297 298 299 300 301 301 302 302
284 285 284 284 283 282 282 281 280 279 277 280 281 281 280 281 283 284 285 285 286 292 292 293 293 294 294 295 295 296 296 297 298 298 300 300 301 301
284 284 284 286 282 282 281 280 279 279 278 278 281 281 281 282 283 282 285 287 286 289 291 292 292 292 293 294 294 294 294 295 295 296 296 297 298 299
285 284 283 282 281 281 280 279 280 282 280 279 279 282 281 283 282 283 284 283 285 288 289 290 291 292 292 292 292 293 292 293 293 293 294 295 296 297
284 284 283 282 281 280 280 280 281 279 279 279 279 279 282 283 283 281 280 282 281 283 286 288 290 290 290 290 290 290 290 291 292 293 293 294 295 296
283 283 283 285 289 287 284 281 280 279 278 278 279 280 281 281 279 280 279 280 281 282 282 283 282 282 283 286 287 288 289 291 292 292 293 294 294 295
281 282 282 285 285 289 289 289 287 283 278 280 280 280 279 279 280 279 278 278 277 283 279 280 282 281 282 282 287 289 289 290 291 291 292 293 294 294
280 280 281 284 284 281 285 288 287 288 288 283 280 279 278 280 279 278 279 280 279 281 281 279 281 279 281 283 286 287 289 289 290 290 291 292 293 293
280 280 279 280 281 284 282 281 282 281 281 283 282 281 281 283 284 283 281 279 280 280 280 276 279 278 280 280 285 287 288 288 289 290 290 290 291 292
281 281 282 281 286 288 284 280 280 280 285 286 287 287 287 287 285 282 277 276 275 277 280 277 277 277 278 278 280 285 286 287 287 288 289 290 290 292
280 280 285 284 287 288 284 282 278 278 279 279 280 280 281 280 284 280 277 276 275 275 277 276 276 277 274 276 276 279 279 284 286 287 288 289 290 288
279 279 280 286 287 287 287 281 280 283 282 277 277 278 278 279 279 279 279 278 276 275 279 279 277 276 276 275 277 279 279 280 280 282 286 288 289 289
279 279 280 286 286 285 283 284 285 284 277 277 276 276 277 277 278 278 279 278 278 277 279 278 276 276 275 274 274 277 279 280 280 281 282 286 288 290
281 283 286 285 283 280 282 283 282 277 276 275 275 276 276 277 277 278 277 277 276 278 279 278 277 277 277 275 275 276 278 280 281 281 281 284 284 286
283 279 282 281 281 280 278 278 277 276 276 276 275 276 277 276 276 276 275 275 274 275 279 278 276 277 276 277 277 277 279 278 281 281 283 284 285 286
282 277 275 275 275 275 276 276 276 276 275 275 275 275 275 275 275 276 275 274 274 274 274 277 278 278 278 278 277 278 278 279 281 282 282 282 283 284
276 274 273 274 274 274 274 274 275 275 275 275 274 274 274 274 274 275 276 274 273 273 274 275 275 276 277 279 283 278 279 280 281 282 283 281 281 284
274 273 273 273 273 273 273 273 273 274 274 274 274 274 274 274 275 274 274 274 274 274 274 275 276 276 274 273 279 286 281 281 281 281 282 282 282 284
273 272 272 273 273 273 273 273 273 273 274 273 274 275 275 274 274 274 274 273 274 275 276 276 275 277 276 276 278 280 284 280 281 281 282 283 285 288
273 273 273 273 273 273 273 273 273 273 275 275 273 274 274 275 274 274 274 278 278 276 274 275 277 284 282 282 277 278 281 285 285 283 283 282 281 281
273 273 273 273 273 273 273 273 273 273 273 273 273 274 274 275 275 275 276 275 275 276 276 277 280 281 280 279 277 277 279 282 285 287 287 286 282 279
273 273 273 273 273 273 273 273 273 273 273 273 274 274 275 275 276 277 277 278 277 277 279 279 280 281 280 279 280 279 279 280 281 282 283 288 289 289

GFSNE_sfc_thetae_060.txt.gz
Theta_e
285 286 284 284 285 284 283 282 280 276 276 278 279 281 282 282 285 286 285 289 293 294 294 295 295 296 296 297 298 298 299 299 300 300 302 302 303 303
285 284 284 284 283 283 282 282 281 279 276 278 279 279 281 284 286 286 285 289 290 292 293 293 294 294 295 295 296 296 297 298 299 300 301 301 302 302
284 284 284 283 283 282 281 281 280 279 276 279 279 280 280 281 282 283 284 284 285 291 292 293 293 293 294 294 295 295 296 297 297 298 299 300 301 301
284 283 283 285 282 281 280 280 279 279 278 277 279 279 279 281 281 281 284 286 285 289 291 292 292 292 293 293 293 294 294 295 295 295 296 297 298 299
284 283 283 282 281 280 280 279 279 281 279 278 279 280 280 280 281 282 282 283 285 288 289 290 290 291 292 293 293 292 292 293 293 293 294 294 295 296
283 283 283 282 281 280 280 279 280 279 278 279 279 278 278 281 281 280 279 281 281 283 285 287 289 290 291 291 290 290 290 290 291 292 293 293 294 295
282 283 282 284 288 287 284 281 280 279 278 277 279 277 279 279 278 279 278 279 280 281 281 281 280 282 283 286 287 288 288 290 291 292 292 293 293 294
281 280 281 284 284 288 288 289 287 282 277 275 281 279 279 279 279 278 278 277 277 282 279 280 282 281 281 282 286 288 289 290 290 291 292 292 293 293
279 279 280 283 283 280 285 288 287 289 288 284 280 279 278 279 279 278 278 279 279 280 279 278 280 278 281 282 286 287 288 289 290 290 290 291 292 292
280 279 279 280 281 284 282 280 280 281 282 282 281 281 281 282 283 283 280 279 279 279 279 275 279 278 280 280 285 287 288 288 289 289 290 290 290 291
280 280 281 280 285 288 283 280 280 280 284 287 287 287 288 287 285 281 277 276 274 276 279 277 276 276 278 278 280 285 286 287 287 288 288 289 290 290
280 280 284 284 287 288 284 280 278 278 279 279 278 279 281 279 284 280 276 274 274 274 276 275 276 276 274 275 276 279 279 284 285 286 287 288 289 286
279 280 280 286 287 287 286 279 279 282 280 276 277 277 278 278 279 279 278 277 275 274 278 279 276 275 275 274 276 278 279 279 279 281 285 286 287 288
279 279 280 286 285 284 282 283 284 283 277 276 276 275 276 276 277 277 278 278 279 277 278 278 275 274 274 273 273 277 278 279 279 279 280 284 287 288
280 283 285 284 282 280 281 282 282 276 275 274 274 275 275 276 276 276 277 277 276 277 278 277 277 276 275 274 273 275 276 278 280 279 280 279 281 283
282 277 280 280 280 279 278 277 277 276 276 275 274 275 276 275 275 275 274 275 274 274 277 277 276 276 274 275 275 275 277 276 279 280 280 280 283 284
279 275 274 274 274 274 275 275 275 275 274 274 274 274 274 274 274 275 274 274 273 273 273 275 277 277 276 276 274 276 277 278 279 279 280 280 282 284
275 273 272 273 273 273 273 273 274 274 274 274 273 273 273 273 273 274 276 274 273 273 273 274 274 274 275 277 280 276 277 278 279 280 281 280 280 283
273 272 272 272 272 273 273 272 272 273 273 273 273 273 273 274 275 273 274 274 273 273 274 274 274 275 273 271 277 284 279 280 280 280 281 280 280 282
272 272 271 272 272 272 272 272 272 272 272 272 273 274 273 273 272 273 274 273 273 274 276 277 275 275 273 274 276 280 284 280 279 279 279 281 283 287
272 272 272 272 273 273 273 272 272 272 274 274 272 272 273 273 273 274 274 278 278 276 274 275 278 284 281 280 277 278 282 285 284 281 281 281 280 281
272 272 273 273 273 272 272 272 272 272 272 272 272 273 274 275 274 275 276 276 276 277 278 279 280 281 280 279 277 278 279 282 285 287 287 285 282 279
272 273 273 273 273 273 272 272 272 272 272 273 273 274 275 275 276 276 276 277 279 280 280 279 280 280 280 279 280 279 279 281 282 282 283 288 289 289

GFSNE_sfc_thetae_063.txt.gz
Theta_e
287 287 287 286 284 283 283 282 280 276 276 279 280 281 282 282 284 285 283 289 292 293 294 294 295 295 296 297 297 298 298 299 299 300 301 302 303 303
288 286 286 284 283 282 282 282 281 279 276 278 278 280 281 284 285 285 284 289 290 291 292 293 294 294 295 295 296 296 297 298 299 300 301 302 302 302
286 286 285 284 283 282 281 280 280 279 276 278 279 280 279 280 282 282 283 282 283 290 291 292 293 293 294 294 295 295 296 296 297 298 299 300 300 301
285 285 284 285 283 281 280 279 279 278 277 277 277 278 279 280 280 280 283 285 284 288 291 292 292 292 293 293 293 294 294 295 295 295 296 297 298 298
286 285 284 283 282 282 279 278 278 280 278 277 278 278 279 279 279 280 280 281 283 287 289 289 290 291 292 292 293 293 293 293 293 293 294 294 295 296
285 284 283 282 281 279 279 279 280 278 278 278 279 278 278 279 279 279 279 280 280 283 285 287 289 290 290 291 291 290 290 291 291 292 292 293 293 295
283 282 283 285 287 286 284 280 280 279 279 277 278 277 276 279 278 280 278 279 279 281 281 280 280 281 282 286 286 288 288 290 291 292 292 293 293 293
281 281 280 283 284 287 288 288 287 282 275 274 272 280 279 279 279 278 278 277 277 280 278 280 281 280 281 281 286 288 289 290 290 291 291 292 292 293
280 279 280 282 283 280 285 288 287 289 288 284 280 279 278 279 279 278 279 278 278 280 279 277 279 278 280 281 286 287 288 289 290 290 290 291 291 292
279 279 279 279 281 283 282 281 281 281 281 282 280 280 280 282 283 282 281 278 279 279 279 274 278 277 279 280 285 287 288 288 289 290 290 290 290 290
280 280 281 280 285 287 283 281 280 280 284 286 286 287 287 287 285 280 277 276 274 276 278 276 276 276 278 278 280 285 287 287 288 288 289 289 289 290
280 280 284 283 287 288 283 278 276 277 278 278 278 279 280 279 283 279 275 274 274 273 276 274 276 276 273 275 275 278 280 284 285 286 287 288 288 285
280 280 280 285 287 287 285 277 278 281 279 276 276 276 277 277 278 278 278 276 274 273 278 278 275 275 275 274 275 277 278 279 279 280 284 285 286 286
279 279 280 285 285 284 282 283 284 283 276 275 275 275 275 276 276 277 277 277 278 277 278 278 275 273 273 272 272 276 277 278 278 278 279 282 285 287
281 283 283 282 281 279 281 282 282 275 275 274 274 275 275 275 275 275 275 276 275 277 278 278 276 275 275 273 272 274 275 276 278 277 278 278 278 280
281 276 279 279 279 278 277 277 276 275 275 274 273 275 275 274 274 274 273 274 274 274 276 278 276 275 274 274 274 273 275 274 276 278 278 280 281 282
279 275 274 273 273 273 274 275 275 275 274 274 274 274 273 273 273 274 273 273 272 273 273 275 277 276 276 275 274 274 275 275 277 278 278 278 280 281
275 272 272 272 272 272 273 273 273 274 273 273 273 272 272 272 272 274 275 273 272 273 273 274 274 274 274 276 279 274 275 276 277 278 279 278 279 282
272 272 271 271 272 272 272 272 271 272 272 271 271 271 272 273 274 272 273 273 273 274 274 275 275 274 273 271 277 283 278 278 279 279 280 280 279 281
272 271 271 272 272 272 272 271 272 272 271 271 272 273 273 272 272 272 273 273 274 275 276 278 277 277 275 274 276 280 284 280 280 279 279 281 282 285
271 271 272 272 272 272 272 272 271 271 273 273 271 272 272 273 273 274 274 278 278 277 275 277 280 285 282 281 277 278 282 285 285 282 281 280 279 280
271 271 272 273 272 272 272 271 271 271 271 271 271 272 273 275 274 274 275 275 276 276 277 280 282 281 280 279 277 278 280 282 285 287 287 286 282 279
271 271 272 272 272 272 272 271 271 271 271 271 272 273 275 275 276 277 277 277 278 279 280 279 280 281 280 279 280 279 279 281 282 282 283 288 289 289

GFSNE_sfc_thetae_066.txt.gz
Theta_e
289 288 288 287 287 287 286 284 281 277 277 281 280 280 281 281 284 285 283 289 292 293 293 294 294 295 296 297 298 298 299 299 300 300 301 302 303 304
288 287 287 286 286 286 285 283 282 280 277 278 280 280 280 283 284 285 283 290 291 292 292 292 293 294 295 295 296 297 297 298 298 300 301 301 302 303
287 287 286 286 285 284 284 282 281 279 277 278 279 279 278 280 282 281 282 281 282 289 291 292 292 293 294 294 294 295 296 297 297 299 299 300 300 301
286 286 285 286 284 284 283 283 280 280 279 276 277 277 278 280 280 279 282 284 283 287 290 291 292 292 292 293 293 294 294 295 296 296 296 297 298 299
287 287 286 285 284 283 282 281 280 281 278 277 277 278 278 279 278 279 279 281 283 287 289 289 290 291 292 292 293 293 293 293 293 293 294 294 295 296
286 285 284 283 282 282 282 281 280 279 278 278 278 276 278 279 278 278 279 280 280 282 285 287 288 289 290 290 290 290 290 291 292 292 293 293 293 294
284 284 284 285 287 286 284 282 281 279 278 275 278 278 274 281 279 280 278 279 279 280 280 280 280 281 282 286 286 287 288 289 291 292 292 293 293 294
282 282 282 283 284 287 287 288 287 281 276 273 273 277 280 278 279 278 278 278 277 281 278 280 281 280 281 281 285 288 289 290 291 291 291 292 292 293
281 281 281 283 283 281 284 287 287 288 288 283 279 278 277 279 279 278 279 278 278 280 279 277 280 278 280 281 286 287 288 289 290 290 290 291 291 292
280 280 279 280 280 283 282 281 281 282 282 282 279 280 279 281 281 281 279 278 279 279 279 274 278 277 279 280 285 287 288 289 289 290 290 290 290 291
281 280 280 280 284 288 283 280 279 279 283 285 286 287 286 286 284 280 276 275 273 275 278 276 276 276 277 278 280 285 287 287 288 288 288 289 289 289
281 280 284 284 287 288 282 278 275 276 277 278 278 278 279 278 283 278 273 273 274 273 276 274 275 276 272 275 276 278 280 284 285 286 287 288 288 285
280 280 280 286 286 286 285 277 278 280 279 275 275 276 276 277 277 278 277 273 274 274 277 278 273 275 275 273 275 277 278 278 278 279 283 285 286 285
280 280 280 285 284 283 281 283 284 282 275 275 274 274 275 275 276 276 277 276 276 276 277 277 274 272 273 272 272 275 276 277 277 277 278 281 284 286
281 282 283 282 281 278 281 282 281 275 274 273 273 274 274 275 275 274 274 274 274 274 276 275 275 275 274 272 272 273 274 276 277 276 277 277 277 278
281 276 279 279 279 278 277 276 275 275 275 274 273 274 274 271 273 273 272 273 272 273 275 276 275 274 273 274 274 273 275 273 275 277 277 278 279 281
278 274 273 273 273 273 274 274 274 274 273 273 272 273 273 272 272 273 272 272 272 272 273 275 277 277 276 276 273 274 274 274 276 275 276 276 278 279
274 272 271 271 271 272 272 272 273 273 272 272 272 271 271 271 271 274 274 272 272 272 273 275 275 275 276 278 279 274 275 275 276 277 278 276 277 280
272 271 270 271 271 271 271 271 271 272 271 270 270 270 271 271 274 271 272 273 273 274 275 276 277 277 274 273 279 285 279 279 279 279 280 279 279 280
271 270 270 271 271 271 271 271 271 271 271 270 271 272 272 271 271 272 273 273 274 276 277 278 277 278 277 277 278 280 284 280 280 279 279 281 283 286
270 270 271 271 272 272 272 271 270 270 273 272 270 270 271 273 273 274 275 278 279 277 276 277 279 285 283 282 278 279 282 286 285 282 282 281 280 281
270 270 271 272 272 272 271 271 270 270 270 270 270 271 273 274 274 276 276 275 276 277 277 280 282 282 280 279 278 278 279 282 285 287 288 286 282 279
270 270 271 271 271 272 272 271 271 270 271 271 271 272 274 274 277 278 278 278 277 278 280 280 281 281 280 279 280 278 278 280 281 282 284 288 289 289

GFSNE_sfc_thetae_069.txt.gz
Theta_e
292 291 290 289 290 289 289 288 287 282 283 285 286 288 289 289 289 290 290 291 293 294 294 294 294 295 295 296 297 298 299 299 300 301 302 303 304 304
289 288 288 288 288 288 288 286 286 284 282 286 285 287 287 287 289 290 289 290 291 292 293 293 293 294 294 295 296 296 297 298 299 300 301 302 303 303
288 288 287 287 287 286 286 285 285 284 282 285 285 286 285 286 287 289 289 288 288 290 292 292 292 293 294 294 295 295 296 297 298 299 300 301 301 301
287 287 287 288 286 286 285 284 284 284 284 282 284 284 284 286 287 286 286 287 288 288 290 291 292 292 293 293 293 294 295 295 296 296 297 298 299 299
288 287 286 287 286 286 284 284 284 284 284 282 282 284 285 286 286 286 285 286 286 288 289 290 290 291 291 292 293 293 293 293 293 294 294 295 296 297
287 286 286 285 284 284 284 284 285 283 284 284 283 284 284 286 285 283 283 285 284 286 287 288 289 290 290 291 290 290 290 291 292 292 293 293 293 294
285 285 285 285 287 287 287 286 285 284 284 284 283 284 283 283 282 283 282 283 284 286 285 285 286 286 287 288 288 288 288 290 291 292 292 293 293 294
283 283 283 285 286 287 287 288 288 286 284 284 283 282 282 282 283 282 282 281 279 286 284 283 286 284 285 286 287 288 289 290 290 291 292 292 292 293
283 283 283 284 284 284 285 287 287 288 288 286 283 282 281 282 283 282 282 281 280 284 283 281 284 282 285 285 287 287 288 289 290 290 291 291 291 292
283 283 282 283 283 285 285 285 285 285 284 284 284 283 284 285 285 284 283 282 282 283 283 277 283 281 283 284 286 287 287 288 289 289 290 290 290 290
283 283 284 283 285 288 286 284 282 282 284 285 286 286 286 286 285 283 281 279 276 279 282 279 281 281 282 282 284 285 286 287 288 288 289 289 289 289
283 283 284 285 287 287 285 282 279 280 281 282 282 282 282 282 283 282 280 277 276 276 282 278 279 279 277 282 283 283 283 284 285 286 287 287 288 286
282 282 283 285 286 285 284 281 280 284 281 280 279 280 280 281 281 281 281 279 276 276 281 280 278 278 277 277 280 282 282 282 282 283 284 285 285 285
281 282 282 284 283 283 282 283 283 282 279 278 278 278 278 279 280 280 280 279 280 278 280 279 276 276 276 275 275 280 282 283 283 281 282 284 284 285
282 283 282 281 281 279 280 281 280 278 277 277 277 277 278 278 278 278 279 279 278 278 278 278 277 277 277 275 275 277 278 281 282 281 281 281 281 282
281 279 279 279 278 278 278 278 278 278 278 277 276 277 277 277 277 278 276 277 276 277 281 280 278 277 276 277 277 276 279 277 281 281 282 282 282 282
280 277 276 275 275 275 276 276 277 277 276 276 275 275 275 276 276 277 276 276 275 276 277 280 281 281 280 278 276 278 279 279 281 281 280 279 281 283
276 274 274 274 274 274 274 275 275 275 275 275 274 274 274 274 274 276 278 276 275 276 277 279 279 279 281 282 282 278 279 280 281 282 281 279 280 283
274 274 273 273 274 274 274 274 274 275 274 274 273 273 273 274 276 275 276 276 276 278 279 280 281 279 276 276 282 287 283 283 283 282 284 283 281 283
274 273 273 273 274 274 274 274 274 274 274 274 274 274 274 273 274 275 277 277 277 279 280 281 281 281 279 278 279 283 285 283 283 282 283 285 286 287
273 273 273 274 274 274 274 274 273 273 274 275 273 273 273 274 275 276 278 280 281 279 278 279 282 285 284 284 280 281 284 286 286 284 284 283 282 283
273 273 273 274 274 274 274 273 273 273 273 273 273 274 274 275 275 277 278 279 279 279 279 281 284 284 283 281 279 280 281 284 286 286 287 285 283 281
272 273 273 273 273 273 273 273 273 273 273 273 273 274 275 275 277 278 279 280 280 280 282 282 283 284 282 281 280 280 280 281 283 283 284 288 288 289

GFSNE_sfc_thetae_072.txt.gz
Theta_e
302 295 292 292 291 291 291 292 290 287 285 286 287 289 290 291 292 292 292 293 293 294 295 295 295 295 296 296 297 298 298 299 299 301 302 302 304 305
293 291 290 290 289 289 288 289 287 285 283 286 286 288 289 289 290 290 291 292 293 293 294 294 294 294 294 295 296 297 297 298 299 300 301 302 302 303
290 289 288 289 288 288 287 287 287 286 284 285 285 288 287 288 289 291 291 291 291 292 293 293 293 294 294 295 295 295 296 297 297 298 299 300 301 302
289 288 287 289 287 287 287 286 285 286 285 282 286 286 287 288 288 289 289 289 289 290 291 292 293 293 293 293 294 294 295 295 296 296 297 298 298 299
290 289 288 288 287 286 286 285 285 286 285 284 284 287 287 287 287 289 288 288 288 290 290 291 291 292 292 293 293 293 293 293 294 294 294 295 296 296
289 288 287 287 286 285 286 285 285 285 286 286 286 286 287 288 288 286 285 286 286 288 289 290 291 291 291 292 292 291 291 291 292 293 293 293 293 294
286 287 286 287 287 287 287 288 287 286 285 286 286 286 286 286 285 285 283 285 286 288 287 288 288 289 289 291 290 290 290 291 291 292 293 293 293 294
284 285 285 288 288 288 288 288 288 287 287 286 285 285 285 285 284 283 283 282 281 288 286 285 288 287 288 289 290 290 290 290 291 291 292 292 292 293
284 284 286 286 286 285 286 287 288 288 289 287 285 284 283 284 284 283 283 283 282 285 285 283 286 285 288 288 289 289 290 290 290 290 291 291 291 292
286 286 285 284 284 286 287 287 287 287 287 286 285 284 285 286 286 285 285 284 285 286 286 281 285 284 286 288 289 289 289 289 290 290 290 290 290 291
285 285 285 285 285 288 287 286 285 285 285 285 286 287 287 287 286 285 283 282 280 282 285 283 284 284 285 286 287 288 288 288 288 289 289 289 289 290
285 285 284 286 286 287 285 284 282 281 283 284 285 285 285 285 285 284 283 279 278 278 285 281 282 282 279 284 285 286 286 287 288 288 288 288 288 286
284 284 285 285 285 284 284 283 281 284 284 283 283 283 284 284 285 285 284 281 278 278 283 282 281 280 279 279 282 285 285 285 286 287 287 287 287 287
283 284 284 283 283 282 282 282 283 283 282 281 281 282 282 283 284 284 283 283 282 281 283 282 278 278 277 276 277 283 285 286 286 284 285 287 287 287
284 283 282 281 281 281 281 281 282 281 281 280 281 281 282 282 282 282 284 284 283 283 283 281 280 278 278 276 277 279 280 283 284 284 284 284 284 285
282 282 280 279 279 279 280 280 281 281 280 280 280 281 281 281 281 282 280 281 279 281 285 284 283 281 277 279 279 278 281 279 283 284 284 284 284 284
282 280 279 279 279 279 280 280 280 280 280 280 279 279 279 280 280 281 280 280 278 278 280 284 285 284 283 281 278 280 280 281 284 284 283 282 283 285
279 277 278 278 278 278 278 279 279 279 279 279 278 278 278 278 278 279 281 280 278 279 279 282 283 281 283 284 285 281 282 282 285 285 285 283 283 286
277 277 277 277 278 278 278 278 278 279 278 277 277 277 277 277 278 279 279 280 279 280 280 282 282 281 278 277 284 288 284 285 284 284 284 284 283 285
277 276 277 277 278 278 278 278 278 278 278 278 277 278 278 277 277 278 279 279 279 281 281 283 283 282 280 279 280 283 286 284 284 283 283 285 287 288
276 276 277 277 278 278 278 278 277 277 277 278 277 277 277 277 277 278 279 281 281 280 280 281 283 286 285 284 282 283 285 287 286 284 284 283 282 283
276 276 277 277 278 278 278 277 277 277 277 277 277 278 278 278 278 278 280 280 279 280 281 283 285 285 284 283 281 282 282 284 286 287 287 286 282 280
276 276 277 277 278 277 277 277 277 277 277 277 278 277 278 277 279 280 281 281 281 281 283 282 284 285 284 283 283 282 282 282 283 283 285 288 288 288

GFSNE_sfc_thetae_075.txt.gz
Theta_e
304 299 295 293 293 293 293 295 294 290 287 287 288 290 290 290 291 291 290 293 295 296 296 297 297 297 297 297 298 298 299 299 300 301 301 302 302 304
297 294 293 291 290 290 290 289 289 288 286 287 287 289 289 290 291 292 291 293 294 295 295 295 295 296 295 296 297 297 298 298 299 300 301 301 302 302
294 292 290 290 289 288 289 289 287 287 286 287 287 288 287 287 289 289 290 289 290 293 294 294 294 294 295 296 296 296 297 297 298 299 299 300 301 301
290 290 289 290 289 289 289 287 287 286 286 285 286 286 285 288 288 288 288 290 289 291 293 293 293 294 294 295 295 295 295 296 296 297 297 298 298 299
290 290 290 289 288 288 287 286 286 287 285 284 284 287 287 288 287 288 288 288 289 291 292 292 293 293 294 294 294 294 294 294 294 294 295 295 296 297
290 291 290 289 287 286 286 286 286 285 285 285 285 286 287 288 288 286 285 287 285 288 290 291 292 292 293 293 293 293 293 293 293 293 293 293 294 294
287 287 288 289 289 288 287 287 287 286 286 286 285 286 286 285 284 285 283 284 285 287 286 287 286 287 288 291 291 291 292 292 292 293 293 293 293 294
284 285 287 288 289 289 289 288 288 286 285 286 286 284 284 284 284 283 282 281 279 286 284 284 287 285 286 287 291 292 292 292 292 292 292 292 292 293
284 285 285 286 286 285 286 287 288 289 289 287 284 284 283 283 283 282 282 282 281 284 284 282 285 284 286 287 291 291 292 292 292 292 292 292 292 292
286 286 285 285 285 285 286 287 287 287 287 287 285 284 284 285 285 284 284 283 283 284 285 280 284 283 285 286 290 290 291 291 291 291 291 291 291 291
285 285 285 285 286 288 287 286 285 284 286 286 286 287 288 288 287 284 281 280 280 280 283 281 281 282 283 283 284 289 289 290 290 290 291 290 290 290
285 285 285 286 287 287 284 283 281 281 282 283 283 284 285 284 286 283 282 279 278 278 282 280 280 280 278 281 282 283 283 287 289 289 289 290 290 287
283 283 284 285 285 284 284 282 281 283 283 282 281 282 282 283 283 284 284 283 279 278 282 282 278 279 278 278 280 281 281 282 283 285 288 288 288 288
282 283 283 284 283 283 282 283 284 284 281 280 280 281 281 282 283 283 282 282 282 281 281 281 278 277 276 275 275 278 280 281 282 282 283 286 288 288
283 283 283 282 282 282 281 282 282 280 280 280 280 280 282 282 281 281 283 283 283 283 283 281 280 279 278 276 275 277 278 279 281 280 283 283 283 284
283 283 281 281 281 280 280 281 280 280 280 279 280 280 281 281 280 281 280 280 279 279 281 282 283 282 279 279 278 277 279 277 280 282 283 283 284 284
281 279 278 278 278 279 279 280 280 280 279 280 279 279 279 279 279 280 280 279 278 278 279 281 284 284 283 281 278 279 280 280 282 282 282 282 284 285
279 277 277 278 278 278 278 278 279 280 279 279 277 277 277 277 277 279 280 279 278 279 279 281 281 281 282 283 285 281 282 282 283 284 284 282 283 285
277 277 277 277 277 278 278 278 278 279 279 278 278 277 277 277 277 278 278 279 278 279 280 281 281 280 277 276 282 288 282 282 282 283 283 283 282 284
277 276 276 277 278 278 278 278 278 278 278 277 277 278 278 277 276 277 278 278 278 279 280 281 281 280 279 278 279 283 286 283 282 282 282 284 285 288
277 276 277 277 277 278 278 278 278 277 278 278 277 277 277 277 276 277 278 280 280 279 278 278 280 286 284 284 281 281 284 287 287 284 283 282 281 281
276 276 277 277 277 277 278 278 277 277 277 277 277 278 278 277 276 277 278 278 279 279 279 281 283 283 282 281 280 281 283 285 287 288 288 286 282 278
276 276 276 276 277 277 276 276 276 276 277 277 277 277 277 277 277 278 278 279 279 280 280 281 282 282 282 283 283 281 282 282 283 283 284 288 288 288

GFSNE_sfc_thetae_078.txt.gz
Theta_e
306 301 297 297 297 297 296 297 296 290 289 288 288 290 291 292 292 292 291 293 296 298 297 297 297 298 298 298 298 298 299 299 300 301 302 302 303 304
298 297 295 294 293 293 293 294 295 292 288 288 288 289 289 291 292 293 292 294 294 295 296 296 296 296 296 297 297 298 298 299 300 300 301 301 302 302
295 294 292 291 291 291 292 292 289 289 287 286 288 289 288 288 290 290 290 289 289 293 294 294 295 295 295 296 296 297 297 298 298 299 299 300 301 301
291 290 290 292 290 291 290 288 287 287 288 286 287 287 286 287 287 287 288 289 287 291 293 294 294 294 295 295 295 296 296 296 297 297 297 298 298 299
290 290 290 290 289 289 288 287 287 287 286 285 284 286 286 285 283 285 285 285 288 291 291 292 293 293 294 295 295 295 295 295 295 295 295 296 296 297
290 290 290 289 288 287 287 286 286 285 284 283 282 283 285 285 283 283 283 284 283 286 288 290 291 292 293 293 293 293 293 293 294 294 294 294 294 295
287 288 288 290 290 289 287 286 286 284 284 283 282 283 281 282 281 282 280 280 281 283 282 283 283 285 286 289 290 291 292 293 293 294 294 294 294 294
285 285 286 288 289 290 290 289 288 285 284 281 281 281 281 280 280 280 278 277 276 282 280 282 283 283 284 285 290 292 292 293 293 293 294 293 293 293
285 285 286 286 286 285 286 287 288 289 289 285 282 281 279 280 278 277 278 276 278 282 281 280 283 281 284 286 290 291 292 292 292 293 293 292 292 293
283 283 284 284 284 285 286 284 284 285 285 285 282 281 280 281 281 279 278 279 280 281 281 278 280 280 282 282 289 289 290 291 291 291 292 292 292 292
282 283 283 283 287 288 284 282 281 281 285 286 286 287 288 288 287 279 275 273 277 278 280 278 278 279 281 281 282 288 288 289 289 290 291 291 291 291
281 282 286 285 287 286 281 279 277 277 278 280 280 281 283 281 287 281 275 271 278 277 278 275 275 276 276 277 279 281 280 285 287 288 289 290 290 287
279 279 280 285 285 284 284 278 278 280 281 278 277 278 279 279 280 281 281 281 279 279 281 282 276 279 278 277 277 277 279 279 280 282 285 287 288 288
278 279 280 284 283 283 281 283 284 283 278 277 277 276 277 279 282 282 282 282 282 281 282 282 278 278 276 276 276 277 279 280 279 279 280 284 287 288
280 282 283 282 282 280 282 283 282 277 277 275 275 276 280 281 281 281 282 283 282 282 283 281 280 280 279 277 276 277 279 280 280 279 277 280 281 282
282 279 280 281 281 280 279 279 278 277 275 273 274 280 280 280 279 280 279 279 279 279 282 283 282 281 279 280 279 278 279 278 280 281 281 282 283 283
280 276 275 275 275 276 277 277 277 277 275 277 278 278 278 278 278 279 279 278 277 278 279 281 283 283 283 281 279 281 281 281 282 282 281 281 284 284
277 274 274 274 274 276 276 276 278 279 279 278 277 277 277 277 276 277 277 277 277 278 278 280 281 281 281 281 285 281 280 280 282 283 283 281 281 284
274 273 273 273 274 274 277 278 277 278 278 278 277 277 277 277 277 277 276 277 277 278 279 280 280 279 276 274 280 287 281 282 282 282 283 282 282 283
274 273 272 273 273 272 276 277 277 277 277 277 277 277 277 276 275 274 274 276 277 278 278 278 277 277 276 276 278 282 286 283 282 282 282 283 285 288
273 273 273 272 271 271 272 277 277 277 277 277 277 277 276 276 275 275 275 279 279 278 276 277 279 285 282 282 280 280 282 287 286 284 284 283 282 282
273 272 273 272 270 267 267 267 270 270 275 276 276 277 274 275 275 275 275 275 275 276 277 278 280 280 281 280 279 280 281 283 286 287 288 287 283 279
272 272 271 269 267 266 265 265 267 269 271 275 276 275 275 275 276 276 276 276 276 277 278 279 279 281 280 280 281 281 280 280 281 281 283 288 288 288

GFSNE_sfc_thetae_081.txt.gz
Theta_e
314 310 303 300 300 299 299 300 299 291 289 291 291 292 293 293 294 294 293 294 297 298 299 300 299 298 299 299 299 300 299 300 300 301 302 302 303 304
299 297 296 296 295 297 297 298 297 296 293 290 289 289 291 292 292 293 292 294 296 297 297 297 297 297 297 297 298 298 298 299 300 300 301 301 302 302
295 293 292 293 292 293 293 293 292 292 290 287 289 289 288 288 290 292 292 290 290 293 294 295 295 296 296 296 296 297 298 298 298 299 300 300 301 301
292 292 291 292 291 291 291 289 289 289 289 287 287 287 287 288 288 287 288 289 288 291 294 294 294 294 295 295 296 296 296 296 296 297 297 298 298 299
291 291 290 290 289 289 288 287 287 288 286 286 284 285 284 284 284 286 286 286 288 290 291 291 292 293 294 295 295 295 295 295 295 295 295 296 296 297
290 290 290 289 288 287 287 287 286 285 285 284 284 284 285 286 285 283 282 283 282 285 287 289 290 291 292 292 293 292 292 292 293 294 294 295 295 295
288 289 289 290 291 289 287 286 286 285 284 284 284 282 280 281 281 280 279 279 279 280 281 282 282 283 284 288 289 290 291 293 293 294 294 295 295 295
285 285 287 289 291 291 291 290 288 283 282 283 280 280 279 278 279 279 277 275 276 281 280 281 282 282 282 283 289 291 291 292 293 293 294 294 294 294
284 285 286 287 286 283 286 287 287 289 288 283 281 280 279 279 277 275 277 274 275 280 280 278 280 280 281 284 288 290 291 291 291 292 292 293 293 293
282 282 282 282 282 284 283 282 282 283 284 285 281 280 279 280 279 277 276 277 279 279 280 273 278 279 280 281 287 289 289 290 290 290 291 291 292 292
281 282 282 281 287 288 281 279 278 279 284 286 286 287 288 288 287 278 274 272 273 277 279 277 277 278 280 279 280 286 287 287 288 288 289 290 290 291
280 281 287 283 286 285 279 277 276 276 277 279 279 279 281 281 286 280 273 267 276 272 278 276 274 278 275 277 278 280 279 284 286 287 287 288 288 286
279 279 280 285 285 284 284 277 278 279 280 277 276 277 278 279 279 280 280 275 278 278 282 281 278 279 278 277 277 278 279 279 279 281 284 286 287 287
278 278 279 284 283 283 281 282 283 282 277 277 277 276 276 279 281 281 282 282 282 280 282 282 278 278 277 276 276 278 279 280 279 279 279 283 286 287
279 282 283 282 282 280 281 283 282 276 277 274 274 274 280 280 281 281 282 282 282 282 281 282 280 280 279 277 276 277 279 280 280 279 278 279 280 281
281 278 281 281 281 280 279 278 277 277 274 272 273 279 280 279 279 280 278 279 278 275 277 278 282 281 278 279 279 278 280 278 282 282 281 282 284 284
279 276 275 275 275 276 276 277 277 277 274 276 278 277 278 278 278 278 278 277 274 274 276 277 280 280 280 279 278 280 280 280 282 282 282 282 283 285
277 274 273 274 274 275 275 276 277 279 278 278 278 277 276 276 276 277 277 271 274 275 275 277 277 277 279 279 284 279 280 279 280 280 281 281 281 284
274 273 272 273 273 273 273 276 277 278 278 277 277 277 277 277 277 276 271 272 274 275 276 277 275 275 275 273 279 285 277 280 281 281 282 282 282 283
273 272 271 272 272 271 270 272 277 277 277 277 276 277 277 276 275 273 272 273 273 274 275 277 271 273 274 275 276 280 285 281 281 281 282 283 285 288
273 272 273 272 271 269 269 267 271 276 277 276 276 276 276 276 274 274 274 277 278 276 274 275 277 283 281 280 278 279 282 286 285 282 282 281 280 281
273 272 273 272 270 266 264 263 264 266 265 273 275 275 276 273 273 274 274 274 274 274 275 277 279 279 279 278 277 279 281 283 285 287 287 286 281 278
272 272 271 270 267 265 262 262 264 266 265 267 269 272 274 273 274 275 275 275 275 275 276 277 278 279 279 278 279 280 280 280 281 281 282 287 288 288

GFSNE_sfc_thetae_084.txt.gz
Theta_e
311 309 304 300 301 302 302 302 303 296 291 292 291 294 294 295 296 296 294 297 300 300 301 300 301 301 301 300 300 300 301 301 301 301 302 303 304 305
299 297 296 297 297 298 299 299 300 298 294 292 291 290 292 293 294 293 293 294 296 298 299 299 299 298 298 298 298 298 299 299 300 301 302 302 303 303
296 295 294 294 294 294 294 293 292 292 290 288 289 290 289 290 291 293 293 292 292 295 295 295 296 296 297 297 297 297 298 298 299 300 300 301 302 302
293 293 292 293 291 291 291 289 289 288 289 287 287 288 288 289 289 288 289 290 289 291 294 295 295 294 294 295 295 296 297 297 297 297 298 299 299 300
292 291 291 291 289 289 289 288 288 288 287 287 284 286 286 286 285 285 286 287 287 289 290 291 292 292 293 294 294 295 295 294 295 295 295 296 297 298
291 290 290 289 288 288 287 287 286 285 285 285 284 285 285 285 283 282 282 282 281 284 286 288 290 291 291 292 292 292 292 292 293 294 295 295 295 296
289 289 290 291 292 290 287 286 286 285 284 284 283 281 278 280 279 279 278 278 278 279 280 281 281 281 282 287 288 289 291 293 293 294 295 295 295 295
286 286 289 290 292 292 292 290 287 282 280 276 273 278 278 277 277 277 275 273 273 280 279 280 280 280 281 281 288 290 291 291 292 293 293 294 294 294
285 285 285 286 284 282 287 288 288 289 288 281 279 278 278 278 275 273 276 272 273 279 278 277 279 279 280 283 287 289 290 291 291 291 292 292 293 293
281 281 280 281 282 283 282 281 281 281 282 284 280 279 279 279 278 276 275 276 278 279 279 272 277 278 279 281 286 288 288 289 289 289 290 291 291 291
281 280 280 281 288 287 281 279 278 278 283 286 286 287 287 288 286 278 274 272 273 277 278 277 277 277 278 278 280 286 287 287 287 288 289 289 289 290
280 281 287 283 286 285 279 277 276 276 277 279 278 279 280 282 285 279 272 267 268 270 278 279 276 276 272 276 278 279 279 285 286 287 288 288 288 286
278 279 280 285 285 284 283 277 278 279 280 277 276 277 278 278 279 279 279 274 276 276 281 280 276 279 278 273 276 277 278 279 279 281 285 286 287 287
278 278 279 284 283 283 281 283 283 282 277 276 276 275 276 277 281 281 282 282 282 280 282 282 278 274 276 275 275 276 278 280 278 279 279 283 286 287
279 281 284 283 282 280 282 283 282 276 276 274 274 273 277 280 280 280 281 282 282 282 279 271 277 276 278 277 276 278 278 279 280 277 278 280 280 283
282 278 280 281 281 280 279 278 277 276 274 271 271 279 280 279 278 279 278 278 277 274 275 275 274 273 277 278 278 278 279 278 279 280 280 281 282 283
279 276 274 275 275 275 276 276 276 277 274 276 278 278 278 278 278 278 278 277 274 275 274 276 278 278 278 277 277 279 279 279 280 279 279 279 281 283
277 274 273 273 273 274 275 275 276 278 279 278 278 277 277 277 277 277 276 272 272 274 273 274 275 275 277 278 282 278 279 278 279 279 279 279 280 283
275 272 272 272 272 272 272 271 273 278 278 277 277 276 277 277 277 275 267 269 271 272 272 272 269 274 273 272 276 284 275 276 279 280 280 281 281 282
273 272 271 272 272 271 269 267 268 276 277 277 276 276 276 276 276 272 270 270 272 272 272 275 272 268 273 274 275 278 284 278 279 279 280 282 284 287
272 272 272 272 271 269 269 266 264 266 271 275 276 275 275 275 275 270 272 277 277 275 272 273 274 281 280 279 276 277 279 285 285 281 281 281 281 281
273 272 272 272 270 267 265 263 261 263 264 265 268 272 273 271 273 273 273 272 273 273 274 275 276 278 278 277 276 277 278 281 285 286 287 286 281 278
273 273 271 270 268 266 262 261 262 264 264 264 265 267 268 271 272 273 273 274 274 273 273 274 277 277 277 277 278 277 278 279 280 280 281 286 287 287

GFSNE_sfc_thetae_087.txt.gz
Theta_e
306 307 306 302 303 303 304 304 304 297 294 293 292 295 295 296 298 297 296 299 302 302 303 303 302 302 303 302 302 301 301 301 302 302 303 304 304 305
300 300 298 298 298 299 299 300 300 299 296 292 291 291 293 294 295 295 294 296 297 300 300 300 300 300 299 299 299 299 299 300 300 302 303 303 303 304
297 296 295 296 295 295 295 294 293 294 292 288 289 290 289 291 292 294 293 293 293 295 296 295 296 297 297 297 297 297 298 298 299 300 301 301 302 302
294 294 293 294 292 292 291 290 289 289 290 287 288 288 288 290 290 290 290 290 288 290 293 294 295 295 295 295 295 296 296 297 297 297 298 299 299 300
293 292 292 291 290 289 289 288 288 289 289 288 285 287 287 287 286 287 286 285 286 289 289 290 291 292 293 294 294 294 294 295 295 295 295 296 297 298
291 291 290 290 289 287 287 287 287 285 284 285 285 284 285 285 282 281 280 279 280 283 285 288 289 290 290 291 292 292 292 292 293 294 295 295 296 297
288 288 288 291 292 291 286 285 286 285 282 278 279 279 277 279 278 277 277 277 277 278 279 280 280 281 281 286 287 289 291 292 293 294 294 295 295 296
286 287 288 290 292 293 292 290 286 282 279 275 271 277 277 277 277 277 274 273 273 279 278 279 280 279 280 281 287 290 290 291 292 293 293 293 294 294
285 285 284 285 284 282 288 289 289 290 287 281 279 278 277 278 275 273 275 271 272 278 278 277 278 278 280 282 287 289 289 290 290 291 291 291 292 292
281 280 280 280 282 282 281 280 280 280 282 283 280 279 279 279 278 275 274 275 278 279 278 271 277 277 279 280 286 287 289 288 289 289 290 290 291 291
281 280 280 281 288 286 280 279 277 278 283 286 285 286 287 287 285 277 274 271 273 277 278 276 276 276 277 277 279 286 287 288 288 289 289 290 290 290
280 281 287 283 286 285 279 277 275 276 276 279 278 279 280 282 285 279 272 266 268 270 277 276 274 275 272 276 277 279 280 285 287 287 288 288 288 286
279 279 280 285 285 284 283 277 277 278 280 277 276 276 278 278 279 279 278 270 276 277 279 281 276 279 278 272 275 277 278 279 279 281 285 286 287 287
278 278 279 284 283 283 281 283 284 282 277 276 276 274 275 275 277 281 281 282 282 280 282 281 278 276 270 275 276 275 277 279 279 279 279 283 286 287
279 281 284 284 283 280 282 283 282 276 276 273 273 272 275 280 280 280 281 281 281 281 282 276 276 274 276 276 276 277 279 278 281 277 274 278 279 281
282 278 280 281 281 280 279 278 277 276 273 270 271 274 280 279 278 279 277 278 277 274 274 271 270 268 273 277 277 277 278 277 277 281 279 279 280 281
279 276 275 274 274 275 275 276 276 276 273 274 277 278 278 278 278 278 277 277 275 271 275 274 276 275 275 275 275 277 277 277 279 279 277 278 279 280
277 274 273 273 272 274 274 274 275 276 277 279 278 278 277 277 277 277 277 274 273 272 271 270 268 270 272 276 280 276 276 276 278 278 277 277 279 281
276 273 271 272 272 272 272 270 268 272 277 277 277 276 276 276 276 276 272 268 271 271 271 271 264 270 272 271 275 283 275 271 276 278 278 279 279 281
273 272 271 272 272 271 269 267 266 267 269 274 276 276 276 276 275 275 275 270 271 271 271 269 267 268 272 272 274 277 283 278 277 277 278 280 282 286
272 272 272 272 271 270 269 267 264 264 265 265 266 272 276 275 274 274 273 276 277 274 271 271 273 279 277 278 275 276 279 283 282 279 279 279 279 280
274 273 273 272 271 269 267 264 262 263 263 263 264 265 267 269 272 271 273 271 272 272 272 273 274 272 275 275 275 276 277 279 283 284 285 285 280 278
274 273 272 272 270 267 265 263 263 264 263 263 263 264 264 267 270 271 272 272 272 272 272 272 273 274 275 276 276 276 277 276 278 278 281 285 286 287

GFSNE_sfc_thetae_090.txt.gz
Theta_e
310 309 308 303 304 304 305 306 305 298 296 292 292 294 296 297 300 298 297 301 302 303 304 304 303 303 303 303 303 302 302 302 302 302 302 303 305 306
303 302 300 299 299 300 300 301 301 302 297 292 290 292 294 295 296 296 295 297 298 300 301 300 301 300 299 299 299 299 299 300 300 301 302 303 304 304
297 297 296 297 296 296 296 295 294 294 293 288 290 290 290 292 292 294 294 293 293 295 296 295 296 296 297 297 297 297 297 298 298 299 300 301 302 302
295 295 293 295 293 293 292 291 290 291 291 288 288 288 289 290 291 290 291 291 289 290 293 294 295 295 294 295 294 295 296 296 297 297 298 298 299 300
292 292 293 292 291 290 290 289 289 290 290 289 284 286 286 287 286 287 286 285 286 288 289 290 291 291 292 293 294 294 294 294 295 295 295 296 297 297
292 292 291 290 289 289 288 286 287 286 286 285 284 285 285 283 281 280 279 279 279 283 284 287 289 290 290 291 292 292 292 292 293 294 295 295 296 296
289 289 289 291 292 290 286 284 284 282 280 278 279 279 276 279 278 277 277 277 277 278 279 280 280 280 281 286 287 288 290 292 293 294 294 295 295 295
287 287 289 291 293 293 292 290 285 281 279 275 275 277 277 277 277 276 274 273 272 278 278 278 279 279 280 281 287 290 290 291 292 293 293 293 293 294
286 285 284 285 284 283 289 290 290 290 286 280 278 277 277 278 275 273 275 271 272 278 278 276 278 278 280 282 287 288 289 290 289 290 291 291 292 292
281 280 280 281 283 282 281 280 279 280 282 283 280 279 279 278 277 275 273 274 278 278 278 271 277 277 279 279 285 287 289 288 289 290 290 290 291 291
280 280 281 281 288 286 280 279 277 278 283 287 285 286 287 287 283 277 274 272 272 276 277 276 276 276 277 277 279 286 287 288 288 289 289 289 290 290
281 282 287 283 286 286 278 277 275 275 276 279 278 279 280 283 284 278 272 265 267 270 276 274 274 275 271 276 277 279 279 284 287 287 288 288 288 286
279 279 280 286 285 284 284 277 277 278 280 276 275 276 277 278 278 279 278 272 276 277 280 281 274 278 277 273 275 277 278 278 280 281 284 286 287 287
278 278 279 284 283 283 281 283 284 282 277 276 275 273 274 275 275 277 281 282 282 280 282 281 277 277 275 276 275 275 275 279 279 279 279 282 285 287
279 281 284 285 284 280 282 283 282 276 275 272 272 272 273 278 280 280 281 281 280 281 282 282 280 278 276 275 275 276 277 276 278 277 274 276 278 280
283 278 280 281 281 280 279 278 277 276 273 270 270 273 278 279 278 279 277 278 276 270 273 269 267 266 268 273 275 275 277 276 275 277 278 279 280 280
278 276 275 275 274 275 275 275 275 276 272 272 274 278 278 278 278 278 277 277 275 269 269 272 275 273 272 272 273 275 275 275 277 277 274 277 279 279
278 275 274 273 273 274 274 274 275 276 274 274 276 278 277 277 276 277 277 276 274 270 268 267 265 267 270 275 278 274 273 273 276 275 274 275 277 280
277 274 272 272 272 272 271 270 268 271 268 269 271 277 277 276 276 276 276 275 273 269 270 267 261 265 269 269 275 283 275 275 272 276 277 277 276 279
274 273 272 272 272 271 269 267 266 267 266 267 267 268 271 276 275 275 275 274 273 271 270 267 263 265 269 269 271 275 281 276 276 275 276 278 280 284
273 272 272 272 271 270 270 267 265 264 263 262 263 265 267 274 274 274 274 276 276 273 271 271 272 278 273 275 272 274 277 282 282 278 277 277 277 279
275 274 274 272 271 269 269 266 263 263 263 262 263 263 265 263 271 272 272 272 271 270 270 272 273 267 266 272 272 273 275 278 282 283 284 283 279 277
276 276 275 273 272 271 267 264 263 264 263 263 263 263 262 263 268 270 271 271 271 270 270 271 272 270 272 272 274 274 275 276 277 277 278 283 285 286

GFSNE_sfc_thetae_093.txt.gz
Theta_e
323 320 316 310 310 310 311 313 308 300 301 296 298 297 300 301 301 301 302 304 304 304 304 304 304 303 303 303 303 302 301 302 302 302 303 304 304 305
308 308 306 305 306 305 307 307 305 306 300 296 292 294 296 297 299 300 299 298 299 300 301 300 300 299 299 299 299 299 299 299 300 301 302 302 303 304
303 303 302 302 302 302 302 299 299 303 299 290 292 293 294 296 296 297 296 296 296 296 296 296 296 296 297 297 297 297 297 297 298 299 300 301 301 301
299 299 297 297 296 298 298 296 295 297 297 292 291 291 292 292 292 293 292 292 291 291 293 294 295 294 294 294 295 295 295 296 296 297 298 298 299 299
298 297 297 296 295 295 293 293 293 293 294 293 288 290 290 290 289 289 288 288 289 289 289 290 291 292 292 292 293 294 295 295 295 295 296 296 297 297
295 295 295 295 293 291 291 291 291 291 291 290 289 288 288 287 287 288 288 287 287 286 286 288 289 290 291 291 292 292 292 292 293 294 295 295 296 296
292 292 292 293 293 292 290 289 289 288 288 287 287 286 286 286 286 285 284 285 285 285 286 287 287 288 288 288 288 288 290 292 293 294 294 295 295 295
288 289 293 294 294 293 292 290 289 287 286 287 284 285 284 285 284 284 283 283 281 285 285 285 286 286 287 288 287 290 291 291 292 293 292 293 293 293
287 288 287 288 288 290 292 292 291 291 288 287 285 285 284 285 284 282 282 282 283 285 284 284 285 285 287 286 287 288 289 290 290 290 291 291 292 292
285 285 285 285 286 285 285 284 284 285 286 286 286 285 285 285 284 284 283 283 284 284 284 282 284 284 286 286 285 288 289 290 289 290 290 291 291 291
284 285 286 287 288 286 284 282 282 282 286 287 286 287 287 287 285 284 283 282 281 282 283 282 283 282 284 284 285 286 287 287 288 289 289 289 290 290
285 287 288 287 288 285 282 281 279 280 281 282 282 282 284 287 285 283 282 281 281 281 283 281 281 281 281 284 284 285 285 285 286 287 288 288 288 288
284 284 285 287 286 286 284 282 280 282 283 281 280 281 282 283 283 283 283 281 280 280 284 283 281 281 281 280 283 284 284 284 285 285 286 286 286 287
281 282 283 285 284 284 283 283 284 284 281 280 279 280 281 281 282 283 283 283 283 282 283 283 281 280 279 278 279 283 283 284 284 284 284 285 286 287
282 283 284 285 284 283 282 283 284 281 279 279 279 280 281 282 283 282 282 283 283 283 284 283 282 281 280 278 278 279 280 283 283 283 284 284 284 285
285 284 282 282 281 281 281 281 280 280 279 279 279 280 281 282 280 281 280 280 279 280 281 280 279 277 277 278 278 277 280 278 283 283 283 283 284 285
281 279 278 278 277 278 278 278 279 279 280 279 279 280 280 279 279 281 280 279 278 278 279 280 280 279 278 277 276 278 279 280 282 282 281 281 283 284
281 278 277 277 277 277 277 277 278 279 279 280 280 280 279 279 279 279 279 278 277 277 277 278 277 276 278 280 280 278 279 279 281 282 281 279 280 283
281 279 278 277 277 277 277 277 277 279 278 279 279 279 279 279 278 278 278 277 276 276 277 277 275 273 273 273 279 283 279 280 280 280 281 281 280 282
280 279 279 278 277 277 276 276 276 277 276 277 277 277 278 278 277 277 277 276 275 275 276 277 275 274 273 274 275 279 281 279 279 279 279 282 283 284
279 278 278 278 277 277 277 276 275 275 275 274 275 275 276 276 276 277 276 277 277 277 275 275 277 278 277 277 274 276 280 282 282 280 280 279 278 280
279 278 278 278 277 277 276 275 274 274 275 274 273 274 274 274 275 275 276 275 274 274 274 275 276 276 274 273 273 275 277 280 282 282 283 283 280 277
280 280 279 279 278 278 276 274 273 274 273 272 272 272 272 271 273 273 273 274 273 273 273 273 274 276 274 274 275 274 275 276 279 279 281 284 284 284

GFSNE_sfc_thetae_096.txt.gz
Theta_e
327 327 325 325 322 321 318 316 313 308 308 301 301 301 303 303 304 306 307 306 306 305 305 304 304 303 303 303 302 302 302 302 302 303 303 303 304 305
320 322 315 311 312 314 316 315 312 311 305 301 299 297 300 299 300 303 301 300 300 301 302 301 301 299 299 299 299 299 299 300 300 301 302 302 303 303
309 309 308 310 306 307 310 310 308 309 302 293 297 296 296 299 300 301 300 300 299 296 296 296 296 296 297 297 297 297 297 298 298 299 300 300 300 300
304 306 303 303 303 302 303 303 305 304 304 296 295 295 296 296 297 297 295 294 295 292 294 294 295 295 294 294 295 295 295 296 296 297 297 298 298 298
304 301 302 302 299 300 302 301 300 298 301 300 294 294 293 294 294 293 293 292 290 290 290 290 291 292 293 293 293 293 294 295 295 295 295 296 296 297
300 302 300 301 301 299 297 297 297 297 297 296 294 293 293 291 292 291 291 292 291 290 289 288 290 291 292 292 292 292 293 293 293 294 294 295 296 296
298 297 297 296 296 296 295 295 295 294 295 294 292 292 291 290 290 290 289 289 290 289 288 289 289 290 291 291 290 290 290 291 293 294 294 295 295 295
293 294 295 294 294 294 293 293 293 292 292 292 290 290 289 289 288 288 288 286 285 288 287 288 290 289 290 291 289 289 291 292 292 293 293 292 293 293
289 291 291 292 294 293 293 292 292 291 290 289 287 287 287 288 288 286 286 285 285 288 287 286 289 288 291 289 288 289 290 291 292 290 291 292 292 292
290 290 290 290 289 289 288 287 288 288 288 288 289 288 288 288 287 287 286 286 287 288 287 285 289 287 290 290 286 289 290 291 291 290 290 291 291 291
288 289 289 288 289 288 287 285 285 286 288 288 288 287 287 287 287 287 285 284 285 285 287 285 287 285 287 288 288 287 287 288 289 290 290 290 290 290
288 289 289 289 287 285 285 284 282 283 284 284 285 285 285 287 287 286 286 283 284 284 285 283 284 284 284 288 287 288 288 288 288 288 289 289 289 288
286 287 288 288 287 286 284 284 282 283 284 284 284 284 284 285 285 286 285 284 282 283 285 284 282 282 283 283 286 287 287 287 288 288 288 288 287 288
285 286 287 287 286 286 285 284 285 285 285 283 282 282 283 284 285 285 285 285 284 283 284 284 281 281 280 279 281 286 287 287 287 286 287 288 288 289
285 285 286 286 285 284 283 284 286 285 283 281 281 283 284 285 284 283 284 284 284 285 285 284 282 282 281 279 279 281 282 285 286 286 286 286 286 286
285 286 286 285 285 283 283 284 283 283 283 283 282 284 284 283 282 282 281 281 280 281 285 284 283 282 280 280 280 279 282 281 285 286 285 285 285 286
285 284 282 282 282 281 281 281 282 282 282 282 282 282 282 282 281 282 281 280 279 279 280 282 283 282 282 280 278 281 282 283 285 285 283 282 285 285
283 281 281 281 280 280 280 280 281 281 282 283 283 282 282 282 281 281 280 279 278 279 279 280 280 279 281 282 283 281 282 283 285 284 284 281 282 285
284 282 281 281 281 281 281 281 281 282 284 282 282 282 282 282 281 280 280 278 278 279 280 280 278 277 275 275 282 285 281 282 282 283 283 283 282 284
285 284 283 282 282 282 282 281 281 281 280 281 281 281 281 281 280 280 280 279 278 279 278 279 279 278 276 275 276 280 282 281 281 280 281 283 284 285
286 285 284 283 283 283 282 282 281 281 281 280 280 280 280 280 279 279 279 279 278 278 277 278 280 281 280 279 274 276 281 283 282 280 281 280 279 280
285 284 284 283 283 283 282 282 281 280 280 279 279 279 279 279 278 278 278 278 278 278 277 279 279 279 277 275 274 275 278 281 283 283 283 282 279 277
286 285 285 284 284 283 283 282 281 281 280 279 279 278 278 277 277 278 277 277 277 276 276 276 277 278 277 276 276 275 276 277 280 280 282 284 284 285

GFSNE_sfc_thetae_099.txt.gz
Theta_e
327 327 326 325 324 324 322 319 315 307 307 305 302 302 303 304 303 307 304 307 307 307 306 306 305 304 304 303 303 302 302 302 302 303 303 303 304 304
323 323 320 317 317 317 317 318 315 313 307 303 300 299 300 301 301 303 301 301 303 303 302 302 301 300 299 299 299 299 299 299 300 300 301 301 302 302
312 317 312 310 310 310 312 312 310 309 304 295 298 298 298 299 299 301 300 300 298 298 298 297 297 297 297 297 297 297 297 298 297 298 299 300 300 300
307 308 304 304 306 306 305 305 305 305 304 295 295 295 297 298 298 298 296 296 295 293 295 295 295 295 295 295 295 295 295 295 296 296 297 298 298 299
304 303 303 302 302 302 304 302 302 301 303 299 295 296 294 295 295 294 293 291 291 291 291 291 292 293 293 293 293 294 293 294 295 295 295 296 296 297
301 302 302 303 301 300 300 299 299 299 299 298 294 293 293 292 293 290 289 290 289 290 289 289 290 291 292 293 293 292 292 293 293 294 294 295 296 296
298 298 298 297 299 300 298 297 297 296 296 293 292 291 290 288 288 288 287 287 287 286 286 286 287 287 288 291 291 291 291 291 292 294 294 295 295 295
294 294 295 295 295 296 296 296 296 294 293 293 291 290 289 288 287 286 285 283 282 286 284 285 287 286 288 287 290 289 291 292 293 293 294 293 293 293
290 292 292 294 293 293 294 293 292 293 292 290 288 286 285 286 286 284 283 283 283 285 284 283 286 284 287 288 289 289 290 292 292 293 292 292 292 293
291 290 291 291 292 290 288 287 287 287 288 288 288 287 287 287 286 285 284 284 284 284 284 281 285 284 286 287 288 287 290 291 292 291 291 292 291 292
288 289 289 289 290 290 287 285 285 285 289 289 289 289 288 288 288 285 283 282 282 282 283 281 283 283 284 285 285 287 288 289 290 291 291 291 291 292
288 288 290 289 289 288 285 284 282 283 283 283 284 284 286 286 288 284 284 280 282 281 282 280 281 281 279 284 283 284 284 289 290 290 290 291 291 286
287 286 287 289 287 286 285 282 282 283 283 282 282 282 282 284 283 283 284 283 282 282 283 280 282 281 282 281 281 283 284 284 284 285 289 290 290 288
285 286 287 288 287 287 285 286 285 285 283 281 280 280 281 282 283 283 283 283 284 283 285 283 280 281 280 278 278 281 281 283 282 283 283 287 289 290
285 286 289 287 286 285 284 285 286 283 281 280 280 281 282 283 284 281 281 281 279 280 282 283 281 281 281 279 278 279 280 279 282 281 280 284 284 282
286 285 286 286 286 284 282 283 282 282 282 281 281 282 283 282 280 283 281 281 280 280 284 283 277 280 278 279 279 278 280 277 279 280 282 284 283 283
285 284 282 281 281 281 281 281 281 280 280 280 281 281 281 280 280 281 281 280 279 278 280 282 283 282 281 279 277 278 277 279 281 283 283 281 282 282
283 281 280 280 279 279 279 279 280 281 281 281 281 281 280 279 279 281 280 279 278 278 279 280 280 279 279 279 282 277 278 278 278 279 281 280 280 281
282 281 280 280 280 280 280 280 280 280 280 280 280 280 280 279 279 277 277 278 278 277 277 279 278 276 273 271 277 286 278 277 278 279 279 279 279 280
283 282 281 281 281 281 280 280 280 280 280 280 280 279 279 278 277 277 277 276 276 275 274 274 274 276 275 271 270 275 282 275 276 276 277 279 281 285
284 283 283 283 282 282 282 281 281 280 280 279 279 279 279 278 277 277 278 280 279 275 275 275 276 283 274 273 273 273 277 282 281 278 279 277 277 277
285 285 284 284 283 283 282 282 280 280 280 279 279 279 278 278 277 277 277 276 276 276 276 275 275 273 272 275 272 273 275 277 281 282 283 282 278 274
285 285 284 284 284 283 282 281 280 281 280 279 279 278 278 277 278 278 277 277 276 274 274 274 274 273 274 273 275 275 276 276 277 277 278 284 284 285

GFSNE_sfc_thetae_102.txt.gz
Theta_e
325 325 325 324 323 322 319 318 314 303 302 300 296 298 299 300 302 301 302 309 309 309 309 308 307 307 306 305 304 303 303 302 302 302 303 303 303 304
322 322 322 319 320 318 317 315 314 311 304 298 297 295 296 299 300 300 301 303 305 305 304 303 303 302 301 301 301 301 300 300 300 300 300 300 301 301
315 316 317 314 313 312 312 312 310 309 303 293 294 294 295 297 297 298 299 298 297 299 300 299 299 299 299 299 299 298 298 297 297 297 298 299 300 299
309 309 308 307 306 306 306 305 304 305 301 295 294 294 296 298 298 294 294 295 292 296 296 297 297 297 296 296 295 295 295 295 295 295 296 297 298 298
305 305 304 304 302 302 302 302 302 302 302 294 293 295 293 294 292 291 290 289 290 294 293 293 293 293 294 294 294 293 293 293 294 294 295 295 296 296
302 302 302 302 301 301 300 300 299 296 297 294 289 289 289 290 290 287 286 287 286 289 290 290 290 291 292 293 293 293 292 292 293 294 294 294 295 296
298 297 297 299 301 300 297 295 296 295 292 286 285 287 285 285 285 286 285 284 284 283 282 282 283 284 285 292 291 291 291 291 292 293 294 294 295 295
293 293 295 296 297 299 299 299 296 290 288 284 283 286 286 285 284 283 282 279 278 282 280 280 283 282 284 284 292 292 291 291 292 293 294 294 293 293
290 292 292 294 293 293 295 295 295 295 293 289 287 285 284 284 283 281 281 278 276 281 280 279 281 281 283 288 291 290 290 291 292 293 293 291 292 292
291 291 291 291 291 289 287 286 283 285 286 287 284 284 284 285 284 282 281 280 281 281 281 275 281 280 282 283 291 289 290 291 292 292 291 291 292 292
289 290 289 289 293 291 285 283 282 283 290 291 290 290 290 290 286 281 278 276 276 279 280 278 279 280 281 281 283 288 288 290 290 291 291 292 292 292
286 288 291 288 291 291 283 281 281 281 282 282 282 285 286 286 288 281 278 271 273 274 279 275 276 276 273 280 281 282 281 288 290 291 291 291 291 286
285 285 286 290 289 287 286 280 281 282 284 280 279 279 280 280 280 281 281 273 272 275 280 274 274 280 275 276 277 280 281 282 282 283 288 289 290 289
284 284 285 290 288 287 284 286 287 285 280 279 278 277 277 277 278 278 280 279 278 282 283 279 270 278 278 275 274 277 276 279 279 281 281 285 288 289
283 285 289 288 287 287 286 287 287 281 280 277 276 276 276 276 276 281 276 277 272 275 280 280 273 279 279 278 272 276 279 278 280 276 277 278 281 282
287 285 287 286 285 284 283 283 282 281 278 276 276 277 277 276 273 273 279 280 279 280 283 283 281 275 278 279 279 278 279 277 273 277 277 283 284 284
283 282 281 280 280 280 279 280 280 279 277 276 276 276 276 275 274 279 279 279 277 278 279 281 282 281 280 279 277 278 278 277 277 277 281 281 282 280
282 280 280 280 279 279 279 278 278 280 278 277 275 276 274 274 272 270 272 278 277 276 277 277 280 279 279 278 282 277 277 276 276 275 274 273 278 279
281 279 278 278 279 278 277 277 276 277 274 275 275 274 273 272 279 270 270 272 272 272 271 270 272 276 270 271 275 282 276 270 277 278 275 277 276 278
283 280 280 280 279 279 278 277 276 276 275 275 272 272 273 272 269 269 272 272 273 270 269 268 269 269 271 269 267 271 282 268 269 273 274 277 279 283
284 282 282 281 280 280 279 278 276 275 274 272 273 275 275 275 273 274 274 280 278 272 271 270 272 281 276 273 274 275 275 280 280 272 271 276 276 277
284 283 284 283 282 281 279 279 278 280 277 276 276 277 278 278 277 276 276 275 276 274 273 269 270 269 266 269 272 270 272 276 280 282 282 281 277 274
285 284 284 284 283 282 281 280 280 279 279 278 277 277 277 277 278 277 277 276 275 275 275 274 272 269 270 271 274 273 273 273 276 275 277 282 284 284

GFSNE_sfc_thetae_105.txt.gz
Theta_e
325 324 323 322 321 322 319 318 316 308 307 302 298 299 299 299 302 302 303 310 311 312 311 310 309 309 309 308 307 306 305 304 304 303 303 303 303 303
322 321 320 319 321 320 320 319 316 315 309 300 296 297 298 299 302 300 301 305 307 307 306 305 305 304 304 303 303 303 303 302 301 300 300 300 301 301
314 315 316 316 316 314 314 312 312 311 308 294 295 296 296 295 297 299 299 298 298 302 302 301 301 301 301 301 301 300 299 298 297 297 298 298 299 299
308 308 310 308 310 309 309 309 309 307 304 297 295 294 295 297 297 296 295 296 293 297 298 298 299 299 299 298 297 296 296 295 295 296 296 296 297 298
304 305 306 306 306 304 305 304 304 303 302 297 293 295 294 295 294 292 290 288 290 296 296 296 296 296 295 295 295 294 293 293 294 294 295 295 295 296
302 303 304 303 303 302 302 302 301 301 299 296 293 291 291 292 291 287 285 286 286 289 291 290 291 292 293 293 294 294 293 292 293 294 294 294 295 296
298 298 297 299 302 303 301 299 299 297 295 291 286 286 283 285 285 286 285 284 283 283 282 283 283 283 284 291 291 292 292 292 293 293 294 295 295 295
292 292 295 297 299 300 300 300 298 294 291 289 287 284 284 284 285 284 282 280 280 281 281 281 281 281 283 283 291 292 292 292 292 293 294 294 294 293
291 292 293 295 295 295 297 297 297 297 296 291 287 286 284 284 284 282 281 279 279 281 280 278 280 280 282 287 293 291 291 291 292 293 294 294 292 292
292 292 291 291 291 290 287 286 286 287 287 288 285 284 284 284 285 283 282 281 281 281 280 275 279 280 281 282 291 290 289 291 292 292 293 292 292 293
290 290 291 290 293 291 286 284 284 285 291 291 290 291 291 290 287 283 280 278 277 279 279 278 277 279 280 280 282 289 289 290 291 292 292 291 292 292
287 290 292 290 293 291 284 283 282 282 282 282 282 286 287 288 288 282 279 273 273 274 279 274 275 275 272 279 281 281 281 287 290 290 291 291 291 285
285 286 288 292 292 291 287 282 281 282 284 280 279 280 281 281 281 281 281 274 269 270 280 273 268 273 271 273 276 278 280 281 281 282 287 288 289 288
285 285 286 291 289 288 285 286 287 286 280 279 279 278 279 279 279 279 280 278 277 275 278 273 267 268 267 268 272 276 275 277 277 280 280 284 287 287
285 286 289 290 289 286 286 287 288 280 280 279 278 278 278 278 276 274 276 276 271 274 277 277 278 268 270 268 268 273 279 277 278 273 274 276 278 280
288 287 288 287 286 284 283 284 282 281 280 278 278 278 277 274 272 271 270 271 273 277 283 282 281 280 277 279 278 277 279 275 271 272 274 276 279 282
284 283 283 282 280 280 280 280 280 281 280 279 278 278 278 275 274 270 271 275 277 277 278 281 283 280 279 277 276 276 277 278 278 271 272 276 276 279
283 281 281 281 281 280 279 279 279 281 280 279 278 279 277 274 271 268 268 270 273 274 275 276 276 279 275 276 281 276 278 277 277 272 272 277 277 277
282 281 280 280 280 280 280 279 279 279 278 277 277 276 275 274 278 269 269 271 272 270 269 268 268 269 270 270 275 282 275 269 276 277 275 274 274 276
283 282 280 280 280 279 279 278 278 278 277 277 276 276 274 273 270 268 273 272 273 270 267 266 268 272 273 271 271 271 281 268 270 268 271 275 277 282
284 283 282 281 280 280 279 279 278 278 277 277 277 276 276 275 275 277 276 280 277 273 273 273 275 281 274 274 274 275 275 282 279 268 267 272 275 275
285 284 284 283 282 281 281 280 279 279 279 276 276 277 277 277 278 277 277 277 277 278 277 275 271 270 270 274 275 275 271 275 279 281 282 281 276 274
285 285 284 284 284 283 282 281 280 279 279 279 278 277 277 277 278 278 277 277 278 277 276 274 274 272 274 273 275 274 272 272 275 275 276 281 283 283

GFSNE_sfc_thetae_108.txt.gz
Theta_e
323 324 324 324 324 323 321 317 315 309 307 305 300 299 300 300 304 303 304 311 313 313 312 311 311 311 311 311 310 310 308 306 305 305 304 303 303 303
323 323 323 322 320 319 319 317 317 317 312 302 299 298 299 300 303 301 302 306 308 308 308 307 307 306 306 305 305 305 305 304 303 302 301 301 301 301
315 315 315 316 316 316 315 314 314 311 312 295 297 295 297 298 299 299 299 298 299 304 304 303 303 302 303 303 303 303 302 301 299 299 299 299 299 299
308 307 307 307 309 310 309 311 311 310 306 299 295 295 296 297 296 295 297 296 294 299 300 300 300 301 301 301 300 299 298 297 297 297 296 296 297 298
302 302 304 306 306 306 306 307 306 305 304 299 294 295 295 296 295 293 291 289 291 297 299 299 299 298 297 297 296 296 295 294 295 295 295 295 296 296
300 300 302 302 303 304 303 304 304 303 301 297 294 292 293 293 293 289 288 287 285 289 291 291 293 293 294 294 295 295 294 292 293 294 295 295 295 295
296 297 298 298 301 303 302 302 301 299 297 293 290 290 288 289 290 288 286 283 282 283 282 283 283 283 284 290 291 293 293 292 293 294 295 295 295 295
293 292 293 296 298 301 302 301 300 297 293 291 289 289 287 287 286 284 283 279 280 281 281 281 282 281 282 282 290 293 292 292 293 293 294 295 294 294
288 291 294 295 295 295 297 297 297 297 297 293 290 289 287 287 283 281 281 279 279 281 281 279 281 280 282 285 292 293 292 292 292 293 294 294 294 293
290 291 292 291 291 291 288 287 287 287 288 290 291 289 288 285 285 283 282 281 281 281 281 276 279 280 281 281 291 292 291 291 292 293 293 294 292 292
290 291 291 291 293 292 287 285 285 286 292 292 291 292 291 290 286 283 280 280 278 280 280 279 278 279 279 280 282 290 289 290 291 293 293 292 292 292
288 290 293 291 294 292 285 284 283 284 285 284 284 285 286 288 289 282 280 278 277 276 280 276 275 276 272 278 280 280 281 288 290 291 291 291 291 284
285 286 288 292 294 292 289 283 283 284 285 279 279 280 281 280 281 282 281 278 272 272 281 274 266 271 268 272 276 278 279 280 280 281 286 287 289 288
285 286 286 292 292 291 288 287 288 286 280 278 279 279 279 279 280 281 281 280 279 277 278 272 267 268 263 267 272 276 274 276 277 279 279 283 286 287
286 287 289 291 290 288 287 288 288 280 279 277 278 278 279 280 278 277 278 277 274 276 277 271 271 264 266 265 267 271 274 275 276 273 274 275 277 278
288 287 289 290 289 286 285 284 281 280 279 279 278 279 278 278 277 273 271 271 270 272 277 274 273 277 277 278 278 276 274 273 271 271 273 274 277 279
285 283 284 283 282 281 280 280 280 281 279 279 279 279 279 279 277 272 272 271 270 271 275 279 282 281 276 273 271 273 271 277 279 277 271 273 275 277
284 280 282 282 281 280 279 279 279 282 281 280 279 279 279 277 276 271 272 272 270 274 277 275 276 278 276 276 281 273 272 277 278 272 275 276 276 276
283 280 280 281 281 281 280 279 279 279 279 279 279 278 278 277 279 273 273 273 272 271 270 269 272 274 272 271 276 283 276 271 273 274 275 275 274 276
285 282 281 280 280 280 280 280 280 278 278 278 277 277 276 276 274 273 275 274 274 271 270 269 272 274 274 273 273 273 282 272 272 270 271 274 276 281
286 284 283 282 281 280 279 280 280 279 278 277 277 277 277 276 276 277 276 279 278 273 273 274 276 281 277 276 274 275 277 282 278 272 270 270 273 275
285 285 284 284 282 281 280 280 279 279 279 278 277 278 278 278 277 277 277 277 279 279 276 277 273 274 274 275 275 276 276 276 280 282 282 278 271 270
286 285 285 285 285 283 282 281 280 280 279 279 278 278 278 277 278 279 278 278 278 278 278 276 274 273 274 275 276 276 276 274 274 274 276 281 282 283

GFSNE_sfc_thetae_111.txt.gz
Theta_e
321 321 321 321 322 322 321 320 317 309 309 307 302 300 301 301 304 305 306 313 313 314 313 313 313 313 313 313 313 313 312 310 308 307 306 305 304 304
320 320 320 321 320 320 320 320 318 316 311 305 300 298 300 300 304 303 305 307 310 309 309 308 309 309 308 308 308 308 307 306 306 305 303 302 302 302
314 313 313 313 312 313 314 314 314 314 312 299 298 297 297 299 300 301 301 299 301 306 306 305 305 304 305 305 305 305 304 304 302 301 302 300 300 300
308 309 306 306 307 308 308 309 310 311 310 309 296 296 297 298 299 298 298 296 295 301 302 302 302 302 303 303 303 302 300 299 299 299 298 297 297 298
300 300 300 301 303 304 305 306 307 306 307 301 295 296 296 297 295 293 292 291 292 298 300 300 301 301 300 300 299 298 297 296 296 296 295 295 296 297
298 298 299 298 298 300 302 303 304 304 302 299 295 293 294 295 294 290 288 289 288 290 292 292 296 297 297 297 297 296 295 293 294 295 295 295 295 296
295 295 295 297 300 301 301 301 301 300 299 294 290 291 289 290 291 290 288 287 285 284 282 282 283 283 285 290 291 295 294 293 293 294 295 295 295 295
291 291 292 295 295 300 301 302 301 298 295 292 290 290 290 290 289 288 286 284 284 281 281 280 281 281 283 283 290 293 293 293 293 294 295 295 295 295
290 289 291 293 293 293 294 294 294 295 298 295 292 292 290 290 288 285 284 282 279 280 280 278 281 281 282 284 291 293 293 293 292 293 294 295 295 294
292 291 291 290 290 291 289 288 288 289 289 290 291 292 291 290 289 287 284 282 281 281 280 277 280 280 281 281 291 293 292 291 291 293 293 294 295 293
289 290 291 291 293 293 288 286 286 286 292 293 293 292 292 291 288 285 281 280 277 279 280 280 279 280 280 281 282 291 291 290 291 293 294 294 293 293
286 287 293 292 293 294 286 284 284 284 285 285 285 285 286 289 288 283 282 276 278 277 280 279 278 278 275 278 280 280 281 288 290 292 292 292 291 284
284 284 287 292 293 294 290 284 284 285 286 283 282 283 282 282 281 281 281 278 274 276 281 278 270 273 271 273 276 278 279 279 280 281 286 287 289 287
286 286 287 291 293 293 290 289 289 287 281 280 280 278 278 278 279 281 281 280 280 280 283 276 271 271 265 267 273 276 274 276 277 279 279 283 285 286
287 288 290 290 292 290 290 288 288 282 281 279 276 275 276 276 278 277 279 279 279 280 278 273 272 265 267 265 268 271 272 274 275 273 274 275 276 278
290 288 288 289 290 287 286 284 282 281 279 278 276 277 279 277 275 277 276 276 275 276 279 274 273 272 268 270 270 269 272 270 270 272 272 274 277 278
287 284 284 283 282 282 281 280 280 280 279 278 277 277 279 278 277 276 276 275 274 274 274 277 279 279 279 273 269 272 270 271 274 275 275 272 275 276
287 282 282 281 281 281 280 280 279 281 279 279 278 279 278 278 277 276 275 275 274 275 273 275 278 278 277 277 280 269 269 270 274 277 274 275 274 276
287 283 281 281 280 280 280 278 278 278 279 280 279 278 279 278 280 276 275 275 274 274 273 272 270 274 269 269 276 283 276 273 277 276 277 277 277 278
286 285 282 281 279 280 279 279 279 278 279 279 278 279 279 278 277 275 276 275 276 275 273 271 270 272 272 270 270 275 282 274 275 274 275 277 278 281
287 286 285 283 282 280 280 279 279 279 278 277 277 277 276 277 277 277 277 279 278 275 274 274 275 281 275 275 274 276 276 282 278 274 273 273 274 276
287 286 285 285 284 282 282 281 279 280 280 279 278 277 277 277 276 277 277 277 279 279 276 274 274 278 276 275 275 275 276 277 281 283 282 279 272 270
286 286 286 286 285 285 283 282 281 281 280 280 279 278 278 277 278 278 277 278 278 278 279 277 273 274 275 276 277 276 276 274 275 275 276 282 283 283

GFSNE_sfc_thetae_114.txt.gz
Theta_e
320 320 320 320 321 321 320 319 315 309 309 309 306 301 303 304 305 305 307 314 314 315 315 315 315 315 316 316 316 316 315 313 311 310 309 308 307 307
319 319 319 318 318 318 318 318 318 315 311 309 303 300 300 301 305 304 306 309 311 311 310 310 311 310 311 311 311 311 309 309 309 309 307 305 305 305
313 311 310 309 309 309 309 310 312 313 310 304 300 299 299 300 301 302 303 301 304 308 308 307 307 307 307 307 308 308 307 307 306 305 305 304 303 302
307 306 304 304 304 304 304 305 307 309 308 307 299 296 298 299 300 299 298 298 298 304 304 304 304 304 305 305 305 304 303 302 302 302 301 300 300 300
300 300 299 299 298 300 302 301 303 305 306 304 299 296 296 297 296 295 294 292 294 300 302 302 303 303 303 303 302 300 299 299 299 298 297 297 298 298
297 297 296 296 295 295 297 297 300 302 303 301 297 294 295 295 295 291 290 290 290 291 295 296 299 300 300 300 299 298 296 295 296 296 295 296 296 297
293 293 293 295 298 299 298 295 297 299 299 296 293 292 290 291 292 291 289 288 287 287 286 286 284 284 286 291 293 296 296 294 294 295 296 296 296 296
292 290 291 294 295 298 299 300 299 297 294 292 290 291 292 292 290 289 287 285 285 285 284 283 282 281 282 282 290 293 295 295 294 295 296 296 296 295
291 288 290 292 291 290 293 293 292 294 294 294 292 292 292 292 290 287 287 286 286 282 283 279 280 280 282 284 290 293 293 294 294 294 295 296 296 295
291 290 289 289 290 290 287 286 286 289 291 290 289 290 291 291 290 289 287 283 283 282 283 281 279 280 281 282 290 294 294 293 293 293 294 295 295 295
288 288 288 288 293 294 287 284 284 285 291 293 293 294 293 292 289 286 284 284 281 281 282 281 280 279 282 282 283 292 293 292 292 293 294 294 295 294
287 288 293 291 294 295 287 285 283 284 285 285 284 285 286 288 288 285 285 284 282 280 280 279 277 279 278 280 281 282 283 290 291 293 293 294 293 285
287 287 287 293 294 295 292 285 284 284 286 283 283 283 282 283 283 283 282 282 275 273 282 278 276 277 275 278 279 280 280 281 281 282 289 289 290 287
287 287 287 291 292 294 292 291 290 288 282 281 281 281 281 281 281 281 280 279 279 279 283 279 275 276 274 274 276 278 276 277 278 280 280 284 286 288
288 289 291 291 291 292 292 289 288 282 281 280 279 279 279 276 274 276 277 277 276 280 279 276 276 272 271 271 273 275 275 276 276 274 275 276 277 278
293 289 289 290 290 288 287 285 282 281 278 277 277 277 275 272 273 272 271 272 274 275 279 276 276 275 271 272 272 272 274 271 272 273 274 275 277 278
288 285 284 284 284 284 282 281 280 280 277 276 275 276 276 274 274 272 272 271 270 271 275 279 279 278 276 274 272 274 273 272 275 274 274 273 276 277
288 284 283 283 283 283 282 280 279 280 279 278 277 277 277 275 274 272 272 271 271 274 275 275 279 279 277 278 280 272 272 272 274 276 276 275 273 276
287 284 283 282 282 282 281 277 275 277 277 279 279 278 277 277 279 276 274 274 274 274 274 273 272 273 272 271 276 283 275 273 275 276 276 276 275 277
286 286 284 283 282 281 279 277 277 275 277 279 279 279 278 277 277 277 276 276 277 274 273 273 273 272 272 272 271 272 283 274 275 274 274 277 279 282
287 286 286 284 283 283 281 280 279 278 278 279 279 278 278 278 278 278 277 280 279 276 275 276 275 280 277 275 273 273 275 283 279 274 274 274 274 276
286 286 286 286 285 284 283 281 280 280 281 279 279 278 277 277 277 277 278 277 279 279 277 275 274 277 276 275 275 273 274 277 282 283 282 280 273 272
286 286 286 286 286 285 285 283 282 281 281 281 280 279 279 277 278 278 278 277 278 277 279 276 274 276 277 276 277 276 275 275 276 276 277 284 285 284

GFSNE_sfc_thetae_117.txt.gz
Theta_e
324 324 324 324 321 322 323 319 316 310 310 312 311 305 306 307 307 309 310 314 316 318 318 317 317 317 318 319 321 320 318 316 314 312 311 311 311 311
322 321 319 316 315 315 315 316 316 315 312 313 309 306 306 304 306 308 310 310 312 313 312 313 313 313 314 314 314 313 313 312 312 311 311 309 308 308
315 314 311 311 311 311 311 311 312 312 310 310 306 305 303 305 305 306 307 306 309 310 310 309 309 309 310 311 311 310 310 310 310 309 308 307 307 306
308 307 305 307 307 307 307 307 308 311 309 306 308 303 301 304 305 305 302 302 303 306 307 306 306 306 307 308 308 308 308 307 305 306 305 304 304 303
304 305 304 304 303 304 304 303 304 305 307 306 306 300 300 300 299 299 298 296 296 302 304 304 304 304 305 306 305 303 302 302 302 301 300 299 301 301
302 301 301 301 300 301 302 302 303 303 303 304 302 298 297 298 298 294 293 292 292 294 298 299 303 303 303 303 301 300 299 299 299 298 297 297 298 299
298 298 298 298 299 301 301 301 299 298 299 299 297 296 294 293 293 294 293 290 290 290 289 289 293 293 296 298 299 297 297 296 296 297 297 297 297 298
295 295 296 296 297 299 298 298 298 298 297 296 295 293 294 293 292 291 288 287 287 289 287 286 287 289 289 292 292 297 297 296 295 295 296 296 297 297
294 294 295 294 294 294 294 293 293 294 294 294 294 294 293 293 291 289 288 288 289 285 285 285 285 285 287 288 290 294 295 295 295 295 296 297 297 296
295 294 294 294 294 294 292 291 290 291 294 293 293 292 291 292 292 290 289 285 284 283 285 285 283 284 286 289 290 293 294 294 294 294 295 296 296 296
292 293 293 293 294 295 292 290 289 290 291 292 292 293 294 293 290 288 286 286 283 283 284 283 282 283 285 287 289 292 295 294 294 294 294 295 295 295
291 292 293 294 294 295 292 289 288 287 288 288 288 287 286 287 288 286 288 286 284 283 284 283 282 284 284 285 286 288 292 293 293 293 294 295 295 294
290 290 290 293 294 295 295 288 288 287 288 286 286 285 284 284 284 284 284 286 285 284 284 285 284 283 283 283 283 285 287 288 289 289 293 294 294 292
290 290 291 292 293 294 294 292 291 289 286 284 283 283 283 283 283 282 282 283 283 284 287 284 284 284 283 282 282 282 283 285 285 286 287 288 290 292
292 291 291 292 292 293 294 293 290 287 285 283 283 283 283 283 282 282 282 282 282 283 282 281 283 281 282 283 282 281 282 283 283 284 284 285 286 286
295 292 292 291 291 290 290 287 285 285 285 284 283 283 282 282 282 282 282 282 282 282 282 281 281 281 281 281 281 281 282 281 281 282 283 283 283 284
291 287 286 285 286 286 286 284 284 284 284 283 282 282 282 281 281 280 280 280 281 280 281 282 282 282 282 281 280 281 281 280 281 281 280 281 282 283
289 286 286 285 285 285 284 284 283 284 283 283 283 283 282 281 281 280 280 280 280 280 280 281 281 281 281 282 283 280 280 280 280 281 281 279 280 283
288 286 285 285 284 284 283 283 283 284 284 283 283 283 282 281 282 280 280 280 279 280 280 280 280 279 277 277 281 284 280 279 280 280 281 280 280 282
288 287 286 286 284 284 284 284 283 283 282 282 282 282 281 281 280 281 280 279 279 280 279 279 278 279 277 277 278 281 283 280 280 280 280 281 281 283
288 287 287 286 285 285 285 285 284 283 283 281 282 281 281 281 280 281 281 281 281 280 279 279 280 282 281 280 277 278 281 283 282 281 281 279 279 279
287 287 287 287 286 285 285 285 284 283 284 284 282 282 281 281 280 280 280 280 281 282 280 282 281 281 279 277 277 279 279 281 283 284 283 282 280 278
286 286 286 286 286 286 285 285 284 284 283 284 283 283 282 280 280 280 280 280 280 280 281 280 280 280 279 278 279 279 279 279 280 279 282 285 284 284